| time (UTC) | temp C | wind direction | speed KPH | gust KPH | rain 1hr cm | rain 24hr cm | rain mn cm | humidity % | barometer mb |
| 20260507212708 | 11 | 110 | 0.0 | 0.0 | 0.00 | 0.08 | 0.05 | 79 | 1018.7 |
| 20260507212604 | 11 | 110 | 0.0 | 0.0 | 0.00 | 0.08 | 0.05 | 78 | 1018.7 |
| 20260507212502 | 11 | 110 | 0.0 | 0.0 | 0.00 | 0.08 | 0.05 | 78 | 1018.7 |
| 20260507212404 | 11 | 110 | 0.0 | 0.0 | 0.00 | 0.08 | 0.05 | 78 | 1018.7 |
| 20260507212306 | 11 | 110 | 0.0 | 0.0 | 0.00 | 0.08 | 0.05 | 78 | 1018.7 |
| 20260507212207 | 11 | 109 | 0.0 | 0.0 | 0.00 | 0.08 | 0.05 | 78 | 1018.7 |
| 20260507212105 | 11 | 109 | 0.0 | 0.0 | 0.00 | 0.08 | 0.05 | 78 | 1018.7 |
| 20260507212002 | 11 | 109 | 0.0 | 0.0 | 0.00 | 0.08 | 0.05 | 78 | 1018.7 |
| 20260507211902 | 11 | 109 | 0.0 | 0.0 | 0.00 | 0.08 | 0.05 | 78 | 1018.7 |
| 20260507211804 | 11 | 109 | 0.0 | 0.0 | 0.00 | 0.08 | 0.05 | 78 | 1018.7 |
| 20260507211707 | 11 | 111 | 0.0 | 0.0 | 0.00 | 0.08 | 0.05 | 78 | 1018.7 |
| 20260507211601 | 11 | 111 | 0.0 | 0.0 | 0.00 | 0.08 | 0.05 | 78 | 1018.7 |
| 20260507211502 | 11 | 111 | 0.0 | 1.6 | 0.00 | 0.08 | 0.05 | 78 | 1018.7 |
| 20260507211402 | 11 | 112 | 0.0 | 1.6 | 0.00 | 0.08 | 0.05 | 78 | 1018.7 |
| 20260507211303 | 11 | 113 | 0.0 | 1.6 | 0.00 | 0.08 | 0.05 | 78 | 1018.7 |
| 20260507211205 | 11 | 113 | 0.0 | 1.6 | 0.00 | 0.08 | 0.05 | 78 | 1018.7 |
| 20260507211102 | 11 | 113 | 0.0 | 1.6 | 0.00 | 0.08 | 0.05 | 78 | 1018.7 |
| 20260507211002 | 11 | 113 | 0.0 | 1.6 | 0.00 | 0.08 | 0.05 | 78 | 1018.7 |
| 20260507210903 | 11 | 113 | 0.0 | 1.6 | 0.00 | 0.08 | 0.05 | 78 | 1018.7 |
| 20260507210802 | 11 | 115 | 0.0 | 1.6 | 0.00 | 0.08 | 0.05 | 77 | 1018.7 |
| 20260507210703 | 11 | 115 | 0.0 | 1.6 | 0.00 | 0.08 | 0.05 | 77 | 1018.7 |
| 20260507210602 | 11 | 115 | 0.0 | 1.6 | 0.00 | 0.08 | 0.05 | 77 | 1018.7 |
| 20260507210505 | 11 | 115 | 0.0 | 0.0 | 0.00 | 0.08 | 0.05 | 77 | 1018.7 |
| 20260507210402 | 11 | 117 | 0.0 | 0.0 | 0.00 | 0.08 | 0.05 | 77 | 1018.7 |
| 20260507210303 | 11 | 117 | 0.0 | 0.0 | 0.00 | 0.08 | 0.05 | 77 | 1018.7 |
| 20260507210202 | 11 | 107 | 0.0 | 0.0 | 0.00 | 0.08 | 0.05 | 77 | 1018.7 |
| 20260507210059 | 12 | 107 | 0.0 | 0.0 | 0.00 | 0.08 | 0.05 | 76 | 1018.7 |
| 20260507210001 | 12 | 107 | 0.0 | 0.0 | 0.00 | 0.08 | 0.05 | 76 | 1018.7 |
| 20260507205858 | 12 | 107 | 0.0 | 0.0 | 0.00 | 0.08 | 0.05 | 76 | 1018.7 |
| 20260507205758 | 12 | 107 | 0.0 | 0.0 | 0.00 | 0.08 | 0.05 | 76 | 1018.7 |
| 20260507205658 | 12 | 107 | 0.0 | 0.0 | 0.00 | 0.08 | 0.05 | 76 | 1018.7 |
| 20260507205558 | 12 | 107 | 0.0 | 0.0 | 0.00 | 0.08 | 0.05 | 76 | 1018.7 |
| 20260507205502 | 12 | 110 | 0.0 | 0.0 | 0.00 | 0.08 | 0.05 | 76 | 1018.7 |
| 20260507205359 | 12 | 109 | 0.0 | 0.0 | 0.00 | 0.08 | 0.05 | 76 | 1018.7 |
| 20260507205258 | 12 | 109 | 0.0 | 0.0 | 0.00 | 0.08 | 0.05 | 76 | 1018.7 |
| 20260507205203 | 12 | 114 | 0.0 | 0.0 | 0.00 | 0.08 | 0.05 | 76 | 1018.7 |
| 20260507205058 | 12 | 114 | 0.0 | 0.0 | 0.00 | 0.08 | 0.05 | 76 | 1018.7 |
| 20260507204957 | 12 | 114 | 0.0 | 0.0 | 0.00 | 0.08 | 0.05 | 76 | 1018.7 |
| 20260507204850 | 12 | 114 | 0.0 | 0.0 | 0.00 | 0.08 | 0.05 | 75 | 1018.7 |
| 20260507204750 | 12 | 114 | 0.0 | 0.0 | 0.00 | 0.08 | 0.05 | 75 | 1018.7 |
| 20260507204653 | 12 | 114 | 0.0 | 0.0 | 0.00 | 0.08 | 0.05 | 75 | 1018.7 |
| 20260507204551 | 12 | 115 | 0.0 | 0.0 | 0.00 | 0.08 | 0.05 | 75 | 1018.7 |
| 20260507204449 | 12 | 115 | 0.0 | 0.0 | 0.00 | 0.08 | 0.05 | 75 | 1018.7 |
| 20260507204350 | 12 | 115 | 0.0 | 0.0 | 0.00 | 0.08 | 0.05 | 75 | 1018.7 |
| 20260507204250 | 12 | 114 | 0.0 | 0.0 | 0.00 | 0.08 | 0.05 | 74 | 1018.6 |
| 20260507204153 | 12 | 112 | 0.0 | 0.0 | 0.00 | 0.08 | 0.05 | 74 | 1018.6 |
| 20260507204051 | 12 | 112 | 0.0 | 0.0 | 0.00 | 0.08 | 0.05 | 74 | 1018.6 |
| 20260507203950 | 12 | 111 | 0.0 | 0.0 | 0.00 | 0.08 | 0.05 | 74 | 1018.6 |
| 20260507203850 | 12 | 112 | 0.0 | 0.0 | 0.00 | 0.08 | 0.05 | 74 | 1018.6 |
| 20260507203749 | 12 | 113 | 0.0 | 0.0 | 0.00 | 0.08 | 0.05 | 74 | 1018.6 |
| 20260507203646 | 12 | 124 | 0.0 | 0.0 | 0.00 | 0.08 | 0.05 | 74 | 1018.6 |
| 20260507203545 | 12 | 125 | 0.0 | 0.0 | 0.00 | 0.08 | 0.05 | 74 | 1018.6 |
| 20260507203444 | 12 | 126 | 0.0 | 0.0 | 0.00 | 0.08 | 0.05 | 73 | 1018.6 |
| 20260507203344 | 12 | 128 | 0.0 | 0.0 | 0.00 | 0.08 | 0.05 | 73 | 1018.6 |
| 20260507203244 | 12 | 128 | 0.0 | 0.0 | 0.00 | 0.08 | 0.05 | 73 | 1018.6 |
| 20260507203144 | 12 | 111 | 0.0 | 0.0 | 0.00 | 0.08 | 0.05 | 73 | 1018.6 |
| 20260507203046 | 12 | 110 | 0.0 | 0.0 | 0.00 | 0.08 | 0.05 | 73 | 1018.6 |
| 20260507202944 | 12 | 113 | 0.0 | 0.0 | 0.00 | 0.08 | 0.05 | 73 | 1018.6 |
| 20260507202844 | 12 | 123 | 0.0 | 4.8 | 0.00 | 0.08 | 0.05 | 73 | 1018.6 |
| 20260507202746 | 12 | 123 | 0.0 | 4.8 | 0.00 | 0.08 | 0.05 | 73 | 1018.6 |
| 20260507202646 | 12 | 123 | 0.0 | 4.8 | 0.00 | 0.08 | 0.05 | 73 | 1018.6 |
| 20260507202543 | 12 | 111 | 0.0 | 4.8 | 0.00 | 0.08 | 0.05 | 72 | 1018.6 |
| 20260507202435 | 12 | 107 | 0.0 | 6.4 | 0.00 | 0.08 | 0.05 | 73 | 1018.5 |
| 20260507202338 | 12 | 107 | 0.0 | 6.4 | 0.00 | 0.08 | 0.05 | 73 | 1018.6 |
| 20260507202233 | 12 | 107 | 0.0 | 6.4 | 0.00 | 0.08 | 0.05 | 73 | 1018.5 |
| 20260507202134 | 12 | 107 | 0.0 | 6.4 | 0.00 | 0.08 | 0.05 | 72 | 1018.5 |
| 20260507202039 | 12 | 121 | 0.0 | 6.4 | 0.00 | 0.08 | 0.05 | 72 | 1018.5 |
| 20260507201934 | 12 | 119 | 0.0 | 8.0 | 0.00 | 0.08 | 0.05 | 72 | 1018.5 |
| 20260507201831 | 12 | 109 | 0.0 | 8.0 | 0.00 | 0.08 | 0.05 | 72 | 1018.5 |
| 20260507201728 | 12 | 119 | 0.0 | 8.0 | 0.00 | 0.08 | 0.05 | 72 | 1018.5 |
| 20260507201631 | 12 | 137 | 0.0 | 8.0 | 0.00 | 0.08 | 0.05 | 72 | 1018.5 |
| 20260507201525 | 12 | 128 | 0.0 | 8.0 | 0.00 | 0.08 | 0.05 | 72 | 1018.5 |
| 20260507201422 | 12 | 128 | 0.0 | 8.0 | 0.00 | 0.08 | 0.05 | 72 | 1018.5 |
| 20260507201322 | 12 | 130 | 0.0 | 8.0 | 0.00 | 0.08 | 0.05 | 72 | 1018.5 |
| 20260507201224 | 12 | 120 | 0.0 | 8.0 | 0.00 | 0.08 | 0.05 | 72 | 1018.3 |
| 20260507201125 | 12 | 133 | 0.0 | 8.0 | 0.00 | 0.08 | 0.05 | 72 | 1018.5 |
| 20260507201026 | 12 | 120 | 0.0 | 8.0 | 0.00 | 0.08 | 0.05 | 72 | 1018.5 |
| 20260507200920 | 12 | 123 | 0.0 | 1.6 | 0.00 | 0.08 | 0.05 | 72 | 1018.3 |
| 20260507200817 | 12 | 88 | 0.0 | 1.6 | 0.00 | 0.08 | 0.05 | 72 | 1018.3 |
| 20260507200718 | 12 | 105 | 0.0 | 1.6 | 0.00 | 0.08 | 0.05 | 72 | 1018.3 |
| 20260507200619 | 12 | 104 | 0.0 | 4.8 | 0.00 | 0.08 | 0.05 | 72 | 1018.3 |
| 20260507200521 | 12 | 136 | 0.0 | 4.8 | 0.00 | 0.08 | 0.05 | 72 | 1018.2 |
| 20260507200414 | 12 | 103 | 0.0 | 4.8 | 0.00 | 0.08 | 0.05 | 72 | 1018.2 |
| 20260507200314 | 12 | 112 | 0.0 | 4.8 | 0.00 | 0.08 | 0.05 | 72 | 1018.2 |
| 20260507200218 | 12 | 135 | 0.0 | 4.8 | 0.00 | 0.08 | 0.05 | 72 | 1018.2 |
| 20260507200114 | 12 | 135 | 0.0 | 4.8 | 0.00 | 0.08 | 0.05 | 72 | 1018.2 |
| 20260507200023 | 13 | 132 | 0.0 | 4.8 | 0.00 | 0.08 | 0.05 | 72 | 1018.2 |
| 20260507195916 | 12 | 126 | 0.0 | 4.8 | 0.00 | 0.08 | 0.05 | 72 | 1018.2 |
| 20260507195815 | 12 | 132 | 0.0 | 4.8 | 0.00 | 0.08 | 0.05 | 72 | 1018.1 |
| 20260507195712 | 12 | 123 | 0.0 | 4.8 | 0.00 | 0.08 | 0.05 | 72 | 1018.1 |
| 20260507195612 | 12 | 121 | 0.0 | 3.2 | 0.00 | 0.08 | 0.05 | 72 | 1018.1 |
| 20260507195511 | 12 | 150 | 0.0 | 3.2 | 0.00 | 0.08 | 0.05 | 72 | 1018.1 |
| 20260507195413 | 12 | 117 | 0.0 | 3.2 | 0.00 | 0.08 | 0.05 | 73 | 1018.1 |
| 20260507195313 | 12 | 137 | 0.0 | 3.2 | 0.00 | 0.08 | 0.05 | 73 | 1018.1 |
| 20260507195211 | 12 | 140 | 0.0 | 3.2 | 0.00 | 0.08 | 0.05 | 73 | 1018.1 |
| 20260507195110 | 12 | 127 | 0.0 | 3.2 | 0.00 | 0.08 | 0.05 | 73 | 1018.1 |
| 20260507195008 | 12 | 114 | 0.0 | 3.2 | 0.00 | 0.08 | 0.05 | 73 | 1018.0 |
| 20260507194904 | 12 | 140 | 0.0 | 1.6 | 0.00 | 0.08 | 0.05 | 72 | 1018.0 |
| 20260507194806 | 12 | 131 | 0.0 | 4.8 | 0.00 | 0.08 | 0.05 | 72 | 1018.0 |
| 20260507194705 | 12 | 131 | 0.0 | 4.8 | 0.00 | 0.08 | 0.05 | 73 | 1018.0 |
| 20260507194603 | 13 | 123 | 0.0 | 4.8 | 0.00 | 0.08 | 0.05 | 72 | 1018.0 |
| 20260507194504 | 13 | 123 | 0.0 | 4.8 | 0.00 | 0.08 | 0.05 | 72 | 1018.0 |
| 20260507194400 | 13 | 128 | 0.0 | 4.8 | 0.00 | 0.08 | 0.05 | 72 | 1018.0 |
| 20260507194255 | 13 | 126 | 0.0 | 4.8 | 0.00 | 0.08 | 0.05 | 72 | 1018.0 |
| 20260507194157 | 13 | 105 | 0.0 | 4.8 | 0.00 | 0.08 | 0.05 | 72 | 1018.0 |
| 20260507194057 | 13 | 105 | 0.0 | 4.8 | 0.00 | 0.08 | 0.05 | 72 | 1017.9 |
| 20260507194001 | 13 | 105 | 0.0 | 4.8 | 0.00 | 0.08 | 0.05 | 72 | 1017.9 |
| 20260507193852 | 13 | 105 | 0.0 | 4.8 | 0.00 | 0.08 | 0.05 | 72 | 1017.9 |
| 20260507193753 | 13 | 103 | 0.0 | 1.6 | 0.00 | 0.08 | 0.05 | 72 | 1017.9 |
| 20260507193650 | 13 | 111 | 0.0 | 1.6 | 0.00 | 0.08 | 0.05 | 72 | 1017.9 |
| 20260507193550 | 13 | 111 | 0.0 | 11.3 | 0.00 | 0.08 | 0.05 | 71 | 1017.8 |
| 20260507193450 | 13 | 111 | 0.0 | 11.3 | 0.00 | 0.08 | 0.05 | 71 | 1017.9 |
| 20260507193347 | 13 | 111 | 0.0 | 11.3 | 0.00 | 0.08 | 0.05 | 71 | 1017.9 |
| 20260507193246 | 13 | 111 | 0.0 | 11.3 | 0.00 | 0.08 | 0.05 | 71 | 1017.9 |
| 20260507193143 | 13 | 111 | 0.0 | 11.3 | 0.00 | 0.08 | 0.05 | 70 | 1017.9 |
| 20260507193042 | 13 | 111 | 0.0 | 11.3 | 0.00 | 0.08 | 0.05 | 70 | 1017.9 |
| 20260507192945 | 13 | 119 | 0.0 | 11.3 | 0.00 | 0.08 | 0.05 | 70 | 1017.8 |
| 20260507192840 | 13 | 132 | 0.0 | 11.3 | 0.00 | 0.08 | 0.05 | 70 | 1017.8 |
| 20260507192741 | 13 | 121 | 0.0 | 11.3 | 0.00 | 0.08 | 0.05 | 70 | 1017.8 |
| 20260507192634 | 13 | 135 | 0.0 | 11.3 | 0.00 | 0.08 | 0.05 | 69 | 1017.8 |
| 20260507192534 | 13 | 109 | 0.0 | 8.0 | 0.00 | 0.08 | 0.05 | 69 | 1017.8 |
| 20260507192430 | 13 | 115 | 0.0 | 8.0 | 0.00 | 0.08 | 0.05 | 69 | 1017.8 |
| 20260507192330 | 13 | 146 | 0.0 | 8.0 | 0.00 | 0.08 | 0.05 | 69 | 1017.7 |
| 20260507192232 | 13 | 133 | 0.0 | 8.0 | 0.00 | 0.08 | 0.05 | 69 | 1017.8 |
| 20260507192126 | 13 | 124 | 0.0 | 0.0 | 0.00 | 0.08 | 0.05 | 69 | 1017.7 |
| 20260507192027 | 13 | 139 | 0.0 | 0.0 | 0.00 | 0.08 | 0.05 | 69 | 1017.7 |
| 20260507191928 | 13 | 108 | 0.0 | 0.0 | 0.00 | 0.08 | 0.05 | 69 | 1017.7 |
| 20260507191826 | 13 | 132 | 0.0 | 0.0 | 0.00 | 0.08 | 0.05 | 69 | 1017.7 |
| 20260507191729 | 13 | 134 | 0.0 | 0.0 | 0.00 | 0.08 | 0.05 | 69 | 1017.7 |
| 20260507191625 | 13 | 137 | 0.0 | 0.0 | 0.00 | 0.08 | 0.05 | 69 | 1017.7 |
| 20260507191526 | 13 | 125 | 0.0 | 0.0 | 0.00 | 0.08 | 0.05 | 69 | 1017.7 |
| 20260507191427 | 13 | 175 | 0.0 | 0.0 | 0.00 | 0.08 | 0.05 | 69 | 1017.7 |
| 20260507191320 | 13 | 135 | 0.0 | 0.0 | 0.00 | 0.08 | 0.05 | 69 | 1017.7 |
| 20260507191223 | 13 | 135 | 0.0 | 0.0 | 0.00 | 0.08 | 0.05 | 69 | 1017.7 |
| 20260507191119 | 13 | 136 | 0.0 | 0.0 | 0.00 | 0.08 | 0.05 | 69 | 1017.7 |
| 20260507191021 | 13 | 115 | 0.0 | 0.0 | 0.00 | 0.08 | 0.05 | 69 | 1017.6 |
| 20260507190917 | 13 | 119 | 0.0 | 0.0 | 0.00 | 0.08 | 0.05 | 68 | 1017.7 |
| 20260507190816 | 13 | 126 | 0.0 | 1.6 | 0.00 | 0.08 | 0.05 | 68 | 1017.6 |
| 20260507190717 | 13 | 122 | 0.0 | 1.6 | 0.00 | 0.08 | 0.05 | 68 | 1017.6 |
| 20260507190609 | 13 | 136 | 0.0 | 1.6 | 0.00 | 0.08 | 0.05 | 68 | 1017.6 |
| 20260507190509 | 13 | 119 | 0.0 | 1.6 | 0.00 | 0.08 | 0.05 | 68 | 1017.6 |
| 20260507190406 | 13 | 116 | 0.0 | 1.6 | 0.00 | 0.08 | 0.05 | 68 | 1017.5 |
| 20260507190308 | 13 | 126 | 0.0 | 3.2 | 0.00 | 0.08 | 0.05 | 68 | 1017.6 |
| 20260507190202 | 13 | 122 | 0.0 | 12.9 | 0.00 | 0.08 | 0.05 | 68 | 1017.6 |
| 20260507190002 | 13 | 133 | 1.6 | 12.9 | 0.00 | 0.08 | 0.05 | 68 | 1017.5 |
| 20260507185905 | 13 | 135 | 1.6 | 12.9 | 0.00 | 0.08 | 0.05 | 68 | 1017.6 |
| 20260507185801 | 13 | 111 | 1.6 | 12.9 | 0.00 | 0.08 | 0.05 | 68 | 1017.5 |
| 20260507185704 | 13 | 134 | 1.6 | 12.9 | 0.00 | 0.08 | 0.05 | 68 | 1017.5 |
| 20260507185557 | 13 | 114 | 1.6 | 12.9 | 0.00 | 0.08 | 0.05 | 68 | 1017.5 |
| 20260507185500 | 13 | 124 | 1.6 | 12.9 | 0.00 | 0.08 | 0.05 | 68 | 1017.5 |
| 20260507185400 | 13 | 137 | 1.6 | 12.9 | 0.00 | 0.08 | 0.05 | 68 | 1017.5 |
| 20260507185255 | 14 | 140 | 1.6 | 12.9 | 0.00 | 0.08 | 0.05 | 68 | 1017.5 |
| 20260507185157 | 14 | 104 | 1.6 | 12.9 | 0.00 | 0.08 | 0.05 | 68 | 1017.5 |
| 20260507185049 | 14 | 111 | 1.6 | 12.9 | 0.00 | 0.08 | 0.05 | 67 | 1017.5 |
| 20260507184951 | 14 | 101 | 1.6 | 12.9 | 0.00 | 0.08 | 0.05 | 67 | 1017.5 |
| 20260507184852 | 14 | 120 | 1.6 | 12.9 | 0.00 | 0.08 | 0.05 | 67 | 1017.5 |
| 20260507184748 | 14 | 106 | 1.6 | 12.9 | 0.00 | 0.08 | 0.05 | 67 | 1017.5 |
| 20260507184651 | 14 | 113 | 1.6 | 12.9 | 0.00 | 0.08 | 0.05 | 67 | 1017.5 |
| 20260507184546 | 14 | 139 | 1.6 | 12.9 | 0.00 | 0.08 | 0.05 | 67 | 1017.4 |
| 20260507184448 | 14 | 124 | 1.6 | 12.9 | 0.00 | 0.08 | 0.05 | 67 | 1017.4 |
| 20260507184347 | 14 | 104 | 1.6 | 12.9 | 0.00 | 0.08 | 0.05 | 67 | 1017.4 |
| 20260507184245 | 14 | 119 | 1.6 | 12.9 | 0.00 | 0.08 | 0.05 | 66 | 1017.4 |
| 20260507184144 | 14 | 123 | 0.0 | 11.3 | 0.00 | 0.08 | 0.05 | 66 | 1017.4 |
| 20260507184038 | 14 | 113 | 0.0 | 11.3 | 0.00 | 0.08 | 0.05 | 66 | 1017.4 |
| 20260507183937 | 14 | 140 | 0.0 | 8.0 | 0.00 | 0.08 | 0.05 | 67 | 1017.4 |
| 20260507183840 | 14 | 123 | 0.0 | 6.4 | 0.00 | 0.08 | 0.05 | 67 | 1017.4 |
| 20260507183737 | 14 | 119 | 0.0 | 4.8 | 0.00 | 0.08 | 0.05 | 67 | 1017.4 |
| 20260507183639 | 14 | 109 | 0.0 | 4.8 | 0.00 | 0.08 | 0.05 | 67 | 1017.4 |
| 20260507183533 | 14 | 130 | 0.0 | 4.8 | 0.00 | 0.08 | 0.05 | 67 | 1017.4 |
| 20260507183434 | 14 | 127 | 0.0 | 8.0 | 0.00 | 0.08 | 0.05 | 68 | 1017.4 |
| 20260507183334 | 14 | 96 | 0.0 | 8.0 | 0.00 | 0.08 | 0.05 | 68 | 1017.4 |
| 20260507183233 | 14 | 132 | 0.0 | 8.0 | 0.00 | 0.08 | 0.05 | 67 | 1017.4 |
| 20260507183133 | 14 | 136 | 0.0 | 8.0 | 0.00 | 0.08 | 0.05 | 68 | 1017.4 |
| 20260507183033 | 15 | 128 | 0.0 | 8.0 | 0.00 | 0.08 | 0.05 | 68 | 1017.3 |
| 20260507182929 | 15 | 119 | 0.0 | 8.0 | 0.00 | 0.08 | 0.05 | 67 | 1017.3 |
| 20260507182835 | 15 | 123 | 0.0 | 8.0 | 0.00 | 0.08 | 0.05 | 68 | 1017.3 |
| 20260507182726 | 15 | 126 | 0.0 | 8.0 | 0.00 | 0.08 | 0.05 | 67 | 1017.4 |
| 20260507182627 | 15 | 126 | 0.0 | 8.0 | 0.00 | 0.08 | 0.05 | 67 | 1017.4 |
| 20260507182520 | 15 | 132 | 0.0 | 8.0 | 0.00 | 0.08 | 0.05 | 67 | 1017.3 |
| 20260507182419 | 15 | 150 | 0.0 | 3.2 | 0.00 | 0.08 | 0.05 | 67 | 1017.3 |
| 20260507182318 | 15 | 107 | 0.0 | 3.2 | 0.00 | 0.08 | 0.05 | 67 | 1017.4 |
| 20260507182217 | 15 | 121 | 0.0 | 9.7 | 0.00 | 0.08 | 0.05 | 67 | 1017.3 |
| 20260507182120 | 15 | 90 | 0.0 | 9.7 | 0.00 | 0.08 | 0.05 | 67 | 1017.3 |
| 20260507182019 | 15 | 130 | 0.0 | 9.7 | 0.00 | 0.08 | 0.05 | 67 | 1017.3 |
| 20260507181915 | 15 | 132 | 0.0 | 9.7 | 0.00 | 0.08 | 0.05 | 67 | 1017.3 |
| 20260507181817 | 15 | 110 | 0.0 | 9.7 | 0.00 | 0.08 | 0.05 | 67 | 1017.3 |
| 20260507181712 | 15 | 92 | 0.0 | 9.7 | 0.00 | 0.08 | 0.05 | 67 | 1017.3 |
| 20260507181612 | 15 | 113 | 0.0 | 9.7 | 0.00 | 0.08 | 0.05 | 67 | 1017.3 |
| 20260507181506 | 15 | 140 | 0.0 | 9.7 | 0.00 | 0.08 | 0.05 | 67 | 1017.3 |
| 20260507181404 | 15 | 93 | 0.0 | 9.7 | 0.00 | 0.08 | 0.05 | 66 | 1017.2 |
| 20260507181300 | 15 | 120 | 0.0 | 9.7 | 0.00 | 0.08 | 0.05 | 66 | 1017.3 |
| 20260507181201 | 15 | 136 | 0.0 | 9.7 | 0.00 | 0.08 | 0.05 | 66 | 1017.3 |
| 20260507181104 | 15 | 139 | 0.0 | 9.7 | 0.00 | 0.08 | 0.05 | 66 | 1017.2 |
| 20260507181004 | 15 | 112 | 0.0 | 9.7 | 0.00 | 0.08 | 0.05 | 66 | 1017.2 |
| 20260507180901 | 15 | 109 | 0.0 | 9.7 | 0.00 | 0.08 | 0.05 | 66 | 1017.2 |
| 20260507180807 | 15 | 121 | 0.0 | 9.7 | 0.00 | 0.08 | 0.05 | 65 | 1017.2 |
| 20260507180700 | 15 | 109 | 0.0 | 9.7 | 0.00 | 0.08 | 0.05 | 65 | 1017.2 |
| 20260507180602 | 15 | 126 | 0.0 | 9.7 | 0.00 | 0.08 | 0.05 | 65 | 1017.2 |
| 20260507180455 | 15 | 66 | 0.0 | 9.7 | 0.00 | 0.08 | 0.05 | 65 | 1017.2 |
| 20260507180356 | 15 | 98 | 0.0 | 9.7 | 0.00 | 0.08 | 0.05 | 65 | 1017.2 |
| 20260507180255 | 15 | 119 | 0.0 | 9.7 | 0.00 | 0.08 | 0.05 | 65 | 1017.2 |
| 20260507180155 | 15 | 117 | 0.0 | 6.4 | 0.00 | 0.08 | 0.05 | 65 | 1017.2 |
| 20260507180051 | 15 | 102 | 0.0 | 6.4 | 0.00 | 0.08 | 0.05 | 65 | 1017.2 |
| 20260507175950 | 15 | 128 | 0.0 | 6.4 | 0.00 | 0.08 | 0.05 | 65 | 1017.2 |
| 20260507175850 | 15 | 103 | 0.0 | 6.4 | 0.00 | 0.08 | 0.05 | 64 | 1017.2 |
| 20260507175752 | 15 | 105 | 0.0 | 1.6 | 0.00 | 0.08 | 0.05 | 64 | 1017.2 |
| 20260507175648 | 15 | 111 | 0.0 | 4.8 | 0.00 | 0.08 | 0.05 | 64 | 1017.2 |
| 20260507175549 | 15 | 128 | 0.0 | 6.4 | 0.00 | 0.08 | 0.05 | 64 | 1017.2 |
| 20260507175446 | 15 | 128 | 0.0 | 6.4 | 0.00 | 0.08 | 0.05 | 64 | 1017.2 |
| 20260507175341 | 15 | 98 | 0.0 | 6.4 | 0.00 | 0.08 | 0.05 | 64 | 1017.2 |
| 20260507175240 | 15 | 98 | 0.0 | 6.4 | 0.00 | 0.08 | 0.05 | 63 | 1017.1 |
| 20260507175141 | 15 | 111 | 0.0 | 6.4 | 0.00 | 0.08 | 0.05 | 63 | 1017.1 |
| 20260507175041 | 15 | 90 | 0.0 | 6.4 | 0.00 | 0.08 | 0.05 | 62 | 1017.1 |
| 20260507174935 | 15 | 128 | 0.0 | 6.4 | 0.00 | 0.08 | 0.05 | 62 | 1017.1 |
| 20260507174833 | 16 | 99 | 0.0 | 6.4 | 0.00 | 0.08 | 0.05 | 62 | 1017.1 |
| 20260507174735 | 16 | 109 | 0.0 | 6.4 | 0.00 | 0.08 | 0.05 | 61 | 1017.1 |
| 20260507174632 | 16 | 104 | 0.0 | 6.4 | 0.00 | 0.08 | 0.05 | 61 | 1017.1 |
| 20260507174534 | 16 | 94 | 0.0 | 3.2 | 0.00 | 0.08 | 0.05 | 61 | 1017.1 |
| 20260507174428 | 16 | 109 | 0.0 | 0.0 | 0.00 | 0.08 | 0.05 | 60 | 1017.1 |
| 20260507174327 | 16 | 99 | 0.0 | 0.0 | 0.00 | 0.08 | 0.05 | 59 | 1017.1 |
| 20260507174230 | 16 | 96 | 0.0 | 1.6 | 0.00 | 0.08 | 0.05 | 59 | 1017.1 |
| 20260507174129 | 16 | 100 | 0.0 | 12.9 | 0.00 | 0.08 | 0.05 | 59 | 1017.2 |
| 20260507174028 | 16 | 97 | 0.0 | 12.9 | 0.00 | 0.08 | 0.05 | 60 | 1017.1 |
| 20260507173926 | 16 | 118 | 0.0 | 12.9 | 0.00 | 0.08 | 0.05 | 60 | 1017.1 |
| 20260507173823 | 16 | 107 | 0.0 | 12.9 | 0.00 | 0.08 | 0.05 | 61 | 1017.1 |
| 20260507173730 | 16 | 94 | 0.0 | 12.9 | 0.00 | 0.08 | 0.05 | 60 | 1017.1 |
| 20260507173621 | 16 | 104 | 0.0 | 12.9 | 0.00 | 0.08 | 0.05 | 60 | 1017.1 |
| 20260507173520 | 16 | 113 | 0.0 | 12.9 | 0.00 | 0.08 | 0.05 | 60 | 1017.1 |
| 20260507173412 | 16 | 92 | 0.0 | 12.9 | 0.00 | 0.08 | 0.05 | 60 | 1017.1 |
| 20260507173310 | 16 | 114 | 0.0 | 12.9 | 0.00 | 0.08 | 0.05 | 59 | 1017.1 |
| 20260507173208 | 16 | 117 | 0.0 | 12.9 | 0.00 | 0.08 | 0.05 | 60 | 1017.0 |
| 20260507173106 | 16 | 92 | 0.0 | 9.7 | 0.00 | 0.08 | 0.05 | 60 | 1017.1 |
| 20260507173007 | 16 | 119 | 0.0 | 9.7 | 0.00 | 0.08 | 0.05 | 59 | 1017.0 |
| 20260507172904 | 16 | 119 | 0.0 | 9.7 | 0.00 | 0.08 | 0.05 | 60 | 1017.0 |
| 20260507172804 | 16 | 101 | 0.0 | 9.7 | 0.00 | 0.08 | 0.05 | 60 | 1017.0 |
| 20260507172704 | 16 | 103 | 0.0 | 9.7 | 0.00 | 0.08 | 0.05 | 60 | 1017.0 |
| 20260507172603 | 16 | 90 | 0.0 | 9.7 | 0.00 | 0.08 | 0.05 | 59 | 1017.0 |
| 20260507172503 | 16 | 101 | 0.0 | 9.7 | 0.00 | 0.08 | 0.05 | 59 | 1017.1 |
| 20260507172403 | 16 | 108 | 0.0 | 6.4 | 0.00 | 0.08 | 0.05 | 59 | 1017.1 |
| 20260507172306 | 16 | 122 | 0.0 | 6.4 | 0.00 | 0.08 | 0.05 | 59 | 1017.1 |
| 20260507172202 | 16 | 117 | 0.0 | 9.7 | 0.00 | 0.08 | 0.05 | 60 | 1017.1 |
| 20260507172059 | 16 | 117 | 0.0 | 9.7 | 0.00 | 0.08 | 0.05 | 60 | 1017.0 |
| 20260507172000 | 16 | 88 | 0.0 | 9.7 | 0.00 | 0.08 | 0.05 | 59 | 1017.0 |
| 20260507171901 | 16 | 103 | 0.0 | 9.7 | 0.00 | 0.08 | 0.05 | 59 | 1017.0 |
| 20260507171800 | 16 | 123 | 0.0 | 9.7 | 0.00 | 0.08 | 0.05 | 58 | 1017.0 |
| 20260507171707 | 16 | 150 | 0.0 | 9.7 | 0.00 | 0.08 | 0.05 | 60 | 1017.0 |
| 20260507171600 | 16 | 108 | 0.0 | 9.7 | 0.00 | 0.08 | 0.05 | 60 | 1017.0 |
| 20260507171503 | 16 | 128 | 0.0 | 9.7 | 0.00 | 0.08 | 0.05 | 58 | 1017.0 |
| 20260507171354 | 16 | 134 | 0.0 | 9.7 | 0.00 | 0.08 | 0.05 | 57 | 1017.1 |
| 20260507171258 | 16 | 107 | 0.0 | 9.7 | 0.00 | 0.08 | 0.05 | 58 | 1017.1 |
| 20260507171154 | 16 | 115 | 0.0 | 8.0 | 0.00 | 0.08 | 0.05 | 58 | 1017.1 |
| 20260507171052 | 16 | 98 | 0.0 | 6.4 | 0.00 | 0.08 | 0.05 | 58 | 1017.1 |
| 20260507170950 | 16 | 105 | 0.0 | 6.4 | 0.00 | 0.08 | 0.05 | 57 | 1017.1 |
| 20260507170847 | 16 | 107 | 0.0 | 6.4 | 0.00 | 0.08 | 0.05 | 57 | 1017.1 |
| 20260507170748 | 16 | 74 | 0.0 | 9.7 | 0.00 | 0.08 | 0.05 | 58 | 1017.1 |
| 20260507170647 | 16 | 113 | 0.0 | 9.7 | 0.00 | 0.08 | 0.05 | 58 | 1017.1 |
| 20260507170548 | 16 | 79 | 0.0 | 9.7 | 0.00 | 0.08 | 0.05 | 58 | 1017.1 |
| 20260507170449 | 16 | 78 | 0.0 | 9.7 | 0.00 | 0.08 | 0.05 | 59 | 1017.0 |
| 20260507170347 | 16 | 103 | 1.6 | 14.5 | 0.00 | 0.08 | 0.05 | 59 | 1017.1 |
| 20260507170250 | 16 | 104 | 1.6 | 14.5 | 0.00 | 0.08 | 0.05 | 58 | 1017.1 |
| 20260507170145 | 16 | 122 | 1.6 | 14.5 | 0.00 | 0.08 | 0.05 | 59 | 1017.1 |
| 20260507170046 | 16 | 107 | 1.6 | 14.5 | 0.00 | 0.08 | 0.05 | 59 | 1017.1 |
| 20260507165944 | 16 | 103 | 1.6 | 14.5 | 0.00 | 0.08 | 0.05 | 57 | 1017.1 |
| 20260507165847 | 16 | 74 | 1.6 | 14.5 | 0.00 | 0.08 | 0.05 | 57 | 1017.1 |
| 20260507165743 | 16 | 114 | 1.6 | 14.5 | 0.00 | 0.08 | 0.05 | 57 | 1017.1 |
| 20260507165646 | 16 | 112 | 1.6 | 14.5 | 0.00 | 0.08 | 0.05 | 56 | 1017.2 |
| 20260507165544 | 16 | 80 | 1.6 | 14.5 | 0.00 | 0.08 | 0.05 | 56 | 1017.1 |
| 20260507165442 | 16 | 128 | 1.6 | 14.5 | 0.00 | 0.08 | 0.05 | 56 | 1017.1 |
| 20260507165342 | 16 | 112 | 1.6 | 11.3 | 0.00 | 0.08 | 0.05 | 56 | 1017.1 |
| 20260507165244 | 16 | 83 | 1.6 | 11.3 | 0.00 | 0.08 | 0.05 | 56 | 1017.1 |
| 20260507165136 | 16 | 88 | 1.6 | 11.3 | 0.00 | 0.08 | 0.05 | 57 | 1017.1 |
| 20260507165038 | 16 | 85 | 1.6 | 11.3 | 0.00 | 0.08 | 0.05 | 58 | 1017.1 |
| 20260507164940 | 16 | 101 | 1.6 | 11.3 | 0.00 | 0.08 | 0.05 | 57 | 1017.1 |
| 20260507164837 | 16 | 60 | 0.0 | 9.7 | 0.00 | 0.08 | 0.05 | 57 | 1017.1 |
| 20260507164737 | 17 | 91 | 0.0 | 9.7 | 0.00 | 0.08 | 0.05 | 56 | 1017.1 |
| 20260507164637 | 17 | 63 | 0.0 | 9.7 | 0.00 | 0.08 | 0.05 | 58 | 1017.1 |
| 20260507164536 | 17 | 99 | 0.0 | 9.7 | 0.00 | 0.08 | 0.05 | 57 | 1017.2 |
| 20260507164440 | 17 | 101 | 0.0 | 9.7 | 0.00 | 0.08 | 0.05 | 57 | 1017.1 |
| 20260507164334 | 17 | 83 | 0.0 | 9.7 | 0.00 | 0.08 | 0.05 | 57 | 1017.2 |
| 20260507164236 | 17 | 79 | 0.0 | 9.7 | 0.00 | 0.08 | 0.05 | 57 | 1017.1 |
| 20260507164134 | 16 | 105 | 0.0 | 9.7 | 0.00 | 0.08 | 0.05 | 56 | 1017.1 |
| 20260507164033 | 17 | 95 | 0.0 | 9.7 | 0.00 | 0.08 | 0.05 | 55 | 1017.2 |
| 20260507163935 | 17 | 71 | 0.0 | 9.7 | 0.00 | 0.08 | 0.05 | 55 | 1017.2 |
| 20260507163834 | 17 | 98 | 0.0 | 9.7 | 0.00 | 0.08 | 0.05 | 55 | 1017.2 |
| 20260507163733 | 17 | 116 | 1.6 | 11.3 | 0.00 | 0.08 | 0.05 | 56 | 1017.2 |
| 20260507163631 | 17 | 113 | 1.6 | 11.3 | 0.00 | 0.08 | 0.05 | 57 | 1017.3 |
| 20260507163532 | 17 | 113 | 0.0 | 11.3 | 0.00 | 0.08 | 0.05 | 58 | 1017.2 |
| 20260507163433 | 17 | 119 | 0.0 | 11.3 | 0.00 | 0.08 | 0.05 | 59 | 1017.3 |
| 20260507163333 | 17 | 85 | 0.0 | 11.3 | 0.00 | 0.08 | 0.05 | 57 | 1017.3 |
| 20260507163229 | 17 | 92 | 0.0 | 11.3 | 0.00 | 0.08 | 0.05 | 56 | 1017.3 |
| 20260507163131 | 17 | 118 | 0.0 | 11.3 | 0.00 | 0.08 | 0.05 | 55 | 1017.2 |
| 20260507163029 | 17 | 123 | 0.0 | 11.3 | 0.00 | 0.08 | 0.05 | 55 | 1017.3 |
| 20260507162935 | 17 | 93 | 0.0 | 11.3 | 0.00 | 0.08 | 0.05 | 56 | 1017.2 |
| 20260507162830 | 17 | 80 | 0.0 | 11.3 | 0.00 | 0.08 | 0.05 | 55 | 1017.2 |
| 20260507162727 | 17 | 119 | 0.0 | 8.0 | 0.00 | 0.08 | 0.05 | 56 | 1017.2 |
| 20260507162628 | 17 | 98 | 0.0 | 8.0 | 0.00 | 0.08 | 0.05 | 56 | 1017.2 |
| 20260507162528 | 17 | 61 | 0.0 | 8.0 | 0.00 | 0.08 | 0.05 | 55 | 1017.2 |
| 20260507162430 | 17 | 115 | 0.0 | 8.0 | 0.00 | 0.08 | 0.05 | 55 | 1017.2 |
| 20260507162327 | 17 | 76 | 0.0 | 8.0 | 0.00 | 0.08 | 0.05 | 54 | 1017.3 |
| 20260507162221 | 17 | 105 | 0.0 | 8.0 | 0.00 | 0.08 | 0.05 | 55 | 1017.2 |
| 20260507162122 | 17 | 63 | 0.0 | 6.4 | 0.00 | 0.08 | 0.05 | 56 | 1017.2 |
| 20260507162024 | 17 | 76 | 0.0 | 6.4 | 0.00 | 0.08 | 0.05 | 56 | 1017.2 |
| 20260507161925 | 17 | 105 | 0.0 | 6.4 | 0.00 | 0.08 | 0.05 | 56 | 1017.3 |
| 20260507161820 | 17 | 84 | 0.0 | 6.4 | 0.00 | 0.08 | 0.05 | 55 | 1017.3 |
| 20260507161717 | 17 | 60 | 0.0 | 6.4 | 0.00 | 0.08 | 0.05 | 56 | 1017.3 |
| 20260507161618 | 17 | 129 | 0.0 | 6.4 | 0.00 | 0.08 | 0.05 | 55 | 1017.3 |
| 20260507161517 | 17 | 94 | 0.0 | 6.4 | 0.00 | 0.08 | 0.05 | 53 | 1017.2 |
| 20260507161422 | 17 | 84 | 0.0 | 6.4 | 0.00 | 0.08 | 0.05 | 51 | 1017.2 |
| 20260507161318 | 17 | 113 | 0.0 | 6.4 | 0.00 | 0.08 | 0.05 | 51 | 1017.2 |
| 20260507161215 | 17 | 106 | 0.0 | 6.4 | 0.00 | 0.08 | 0.05 | 51 | 1017.2 |
| 20260507161115 | 17 | 92 | 0.0 | 6.4 | 0.00 | 0.08 | 0.05 | 52 | 1017.2 |
| 20260507161015 | 17 | 109 | 0.0 | 6.4 | 0.00 | 0.08 | 0.05 | 52 | 1017.2 |
| 20260507160921 | 17 | 113 | 0.0 | 6.4 | 0.00 | 0.08 | 0.05 | 54 | 1017.2 |
| 20260507160818 | 17 | 107 | 0.0 | 3.2 | 0.00 | 0.08 | 0.05 | 55 | 1017.2 |
| 20260507160715 | 17 | 95 | 0.0 | 3.2 | 0.00 | 0.08 | 0.05 | 53 | 1017.2 |
| 20260507160616 | 17 | 105 | 0.0 | 3.2 | 0.00 | 0.08 | 0.05 | 53 | 1017.2 |
| 20260507160508 | 17 | 105 | 0.0 | 3.2 | 0.00 | 0.08 | 0.05 | 53 | 1017.3 |
| 20260507160407 | 17 | 102 | 0.0 | 3.2 | 0.00 | 0.08 | 0.05 | 52 | 1017.3 |
| 20260507160304 | 17 | 88 | 0.0 | 3.2 | 0.00 | 0.08 | 0.05 | 52 | 1017.3 |
| 20260507160202 | 17 | 110 | 0.0 | 3.2 | 0.00 | 0.08 | 0.05 | 55 | 1017.3 |
| 20260507160000 | 17 | 134 | 0.0 | 1.6 | 0.00 | 0.08 | 0.05 | 52 | 1017.3 |
| 20260507155900 | 17 | 88 | 0.0 | 6.4 | 0.00 | 0.08 | 0.05 | 52 | 1017.3 |
| 20260507155759 | 17 | 135 | 0.0 | 6.4 | 0.00 | 0.08 | 0.05 | 53 | 1017.3 |
| 20260507155653 | 17 | 136 | 0.0 | 6.4 | 0.00 | 0.08 | 0.05 | 53 | 1017.3 |
| 20260507155554 | 17 | 103 | 0.0 | 6.4 | 0.00 | 0.08 | 0.05 | 51 | 1017.3 |
| 20260507155453 | 17 | 109 | 0.0 | 6.4 | 0.00 | 0.08 | 0.05 | 52 | 1017.3 |
| 20260507155352 | 17 | 81 | 0.0 | 6.4 | 0.00 | 0.08 | 0.05 | 56 | 1017.3 |
| 20260507155249 | 17 | 84 | 0.0 | 6.4 | 0.00 | 0.08 | 0.05 | 55 | 1017.3 |
| 20260507155149 | 17 | 92 | 0.0 | 6.4 | 0.00 | 0.08 | 0.05 | 56 | 1017.3 |
| 20260507155050 | 17 | 96 | 0.0 | 6.4 | 0.00 | 0.08 | 0.05 | 55 | 1017.3 |
| 20260507154952 | 17 | 136 | 0.0 | 6.4 | 0.00 | 0.08 | 0.05 | 56 | 1017.2 |
| 20260507154849 | 17 | 41 | 0.0 | 0.0 | 0.00 | 0.08 | 0.05 | 54 | 1017.3 |
| 20260507154752 | 17 | 48 | 0.0 | 0.0 | 0.00 | 0.08 | 0.05 | 55 | 1017.3 |
| 20260507154650 | 17 | 83 | 0.0 | 0.0 | 0.00 | 0.08 | 0.05 | 54 | 1017.3 |
| 20260507154552 | 17 | 142 | 0.0 | 0.0 | 0.00 | 0.08 | 0.05 | 54 | 1017.3 |
| 20260507154450 | 17 | 115 | 0.0 | 0.0 | 0.00 | 0.08 | 0.05 | 53 | 1017.3 |
| 20260507154349 | 17 | 111 | 0.0 | 1.6 | 0.00 | 0.08 | 0.05 | 53 | 1017.2 |
| 20260507154250 | 17 | 96 | 0.0 | 3.2 | 0.00 | 0.08 | 0.05 | 55 | 1017.2 |
| 20260507154150 | 17 | 86 | 0.0 | 3.2 | 0.00 | 0.08 | 0.05 | 55 | 1017.3 |
| 20260507154051 | 17 | 97 | 0.0 | 3.2 | 0.00 | 0.08 | 0.05 | 54 | 1017.2 |
| 20260507153949 | 17 | 110 | 0.0 | 3.2 | 0.00 | 0.08 | 0.05 | 55 | 1017.2 |
| 20260507153848 | 17 | 102 | 0.0 | 3.2 | 0.00 | 0.08 | 0.05 | 53 | 1017.2 |
| 20260507153744 | 17 | 125 | 0.0 | 3.2 | 0.00 | 0.08 | 0.05 | 56 | 1017.2 |
| 20260507153642 | 17 | 83 | 0.0 | 3.2 | 0.00 | 0.08 | 0.05 | 55 | 1017.2 |
| 20260507153544 | 17 | 74 | 0.0 | 3.2 | 0.00 | 0.08 | 0.05 | 56 | 1017.2 |
| 20260507153439 | 17 | 99 | 0.0 | 3.2 | 0.00 | 0.08 | 0.05 | 57 | 1017.2 |
| 20260507153339 | 17 | 86 | 0.0 | 3.2 | 0.00 | 0.08 | 0.05 | 56 | 1017.2 |
| 20260507153300 | 17 | 99 | 0.0 | 1.6 | 0.00 | 0.08 | 0.05 | 56 | 1017.2 |
| 20260507153239 | 17 | 147 | 0.0 | 0.0 | 0.00 | 0.08 | 0.05 | 56 | 1017.2 |
| 20260507153141 | 17 | 128 | 0.0 | 0.0 | 0.00 | 0.08 | 0.05 | 55 | 1017.2 |
| 20260507153036 | 17 | 119 | 0.0 | 0.0 | 0.00 | 0.08 | 0.05 | 57 | 1017.2 |
| 20260507152933 | 17 | 99 | 0.0 | 1.6 | 0.00 | 0.08 | 0.05 | 56 | 1017.2 |
| 20260507152833 | 17 | 139 | 0.0 | 6.4 | 0.00 | 0.08 | 0.05 | 54 | 1017.2 |
| 20260507152733 | 17 | 126 | 0.0 | 6.4 | 0.00 | 0.08 | 0.05 | 56 | 1017.2 |
| 20260507152633 | 17 | 83 | 0.0 | 6.4 | 0.00 | 0.08 | 0.05 | 56 | 1017.2 |
| 20260507152533 | 17 | 108 | 0.0 | 6.4 | 0.00 | 0.08 | 0.05 | 56 | 1017.2 |
| 20260507152433 | 17 | 131 | 0.0 | 6.4 | 0.00 | 0.08 | 0.05 | 54 | 1017.2 |
| 20260507152347 | 17 | 122 | 0.0 | 6.4 | 0.00 | 0.08 | 0.05 | 55 | 1017.3 |
| 20260507152336 | 17 | 127 | 0.0 | 6.4 | 0.00 | 0.08 | 0.05 | 55 | 1017.2 |
| 20260507152234 | 17 | 99 | 0.0 | 6.4 | 0.00 | 0.08 | 0.05 | 55 | 1017.3 |
| 20260507152134 | 17 | 100 | 0.0 | 6.4 | 0.00 | 0.08 | 0.05 | 54 | 1017.2 |
| 20260507152036 | 17 | 109 | 0.0 | 6.4 | 0.00 | 0.08 | 0.05 | 57 | 1017.3 |
| 20260507151934 | 17 | 115 | 0.0 | 6.4 | 0.00 | 0.08 | 0.05 | 56 | 1017.2 |
| 20260507151834 | 17 | 122 | 0.0 | 6.4 | 0.00 | 0.08 | 0.05 | 55 | 1017.3 |
| 20260507151736 | 17 | 107 | 0.0 | 1.6 | 0.00 | 0.08 | 0.05 | 56 | 1017.3 |
| 20260507151633 | 17 | 112 | 0.0 | 3.2 | 0.00 | 0.08 | 0.05 | 56 | 1017.3 |
| 20260507151534 | 17 | 109 | 0.0 | 3.2 | 0.00 | 0.08 | 0.05 | 56 | 1017.3 |
| 20260507151435 | 17 | 111 | 0.0 | 3.2 | 0.00 | 0.08 | 0.05 | 56 | 1017.2 |
| 20260507151332 | 17 | 91 | 0.0 | 9.7 | 0.00 | 0.08 | 0.05 | 56 | 1017.3 |
| 20260507151232 | 17 | 113 | 0.0 | 9.7 | 0.00 | 0.08 | 0.05 | 54 | 1017.3 |
| 20260507151132 | 17 | 104 | 0.0 | 9.7 | 0.00 | 0.08 | 0.05 | 55 | 1017.3 |
| 20260507151029 | 17 | 119 | 0.0 | 9.7 | 0.00 | 0.08 | 0.05 | 55 | 1017.3 |
| 20260507150929 | 17 | 58 | 0.0 | 9.7 | 0.00 | 0.08 | 0.05 | 54 | 1017.3 |
| 20260507150829 | 17 | 126 | 0.0 | 9.7 | 0.00 | 0.08 | 0.05 | 55 | 1017.3 |
| 20260507150729 | 17 | 117 | 0.0 | 9.7 | 0.00 | 0.08 | 0.05 | 57 | 1017.3 |
| 20260507150631 | 17 | 106 | 0.0 | 9.7 | 0.00 | 0.08 | 0.05 | 56 | 1017.3 |
| 20260507150529 | 17 | 107 | 0.0 | 9.7 | 0.00 | 0.08 | 0.05 | 56 | 1017.4 |
| 20260507150429 | 17 | 107 | 0.0 | 9.7 | 0.00 | 0.08 | 0.05 | 56 | 1017.3 |
| 20260507150329 | 17 | 96 | 0.0 | 9.7 | 0.00 | 0.08 | 0.05 | 57 | 1017.4 |
| 20260507150229 | 17 | 140 | 0.0 | 9.7 | 0.00 | 0.08 | 0.05 | 56 | 1017.4 |
| 20260507150129 | 17 | 94 | 0.0 | 9.7 | 0.00 | 0.08 | 0.05 | 57 | 1017.4 |
| 20260507150028 | 17 | 121 | 0.0 | 11.3 | 0.00 | 0.08 | 0.05 | 55 | 1017.4 |
| 20260507145929 | 17 | 100 | 0.0 | 11.3 | 0.00 | 0.08 | 0.05 | 56 | 1017.3 |
| 20260507145830 | 17 | 104 | 0.0 | 11.3 | 0.00 | 0.08 | 0.05 | 55 | 1017.3 |
| 20260507145729 | 17 | 82 | 0.0 | 11.3 | 0.00 | 0.08 | 0.05 | 56 | 1017.3 |
| 20260507145632 | 17 | 61 | 0.0 | 11.3 | 0.00 | 0.08 | 0.05 | 55 | 1017.4 |
| 20260507145530 | 17 | 136 | 0.0 | 11.3 | 0.00 | 0.08 | 0.05 | 54 | 1017.4 |
| 20260507145432 | 17 | 108 | 0.0 | 11.3 | 0.00 | 0.08 | 0.05 | 56 | 1017.4 |
| 20260507145329 | 17 | 134 | 0.0 | 11.3 | 0.00 | 0.08 | 0.05 | 55 | 1017.4 |
| 20260507145229 | 17 | 97 | 0.0 | 11.3 | 0.00 | 0.08 | 0.05 | 55 | 1017.4 |
| 20260507145132 | 17 | 113 | 0.0 | 11.3 | 0.00 | 0.08 | 0.05 | 57 | 1017.5 |
| 20260507145030 | 17 | 100 | 0.0 | 9.7 | 0.00 | 0.08 | 0.05 | 57 | 1017.4 |
| 20260507144930 | 17 | 54 | 0.0 | 6.4 | 0.00 | 0.08 | 0.05 | 57 | 1017.4 |
| 20260507144830 | 17 | 105 | 0.0 | 6.4 | 0.00 | 0.08 | 0.05 | 56 | 1017.4 |
| 20260507144729 | 17 | 68 | 0.0 | 6.4 | 0.00 | 0.08 | 0.05 | 55 | 1017.4 |
| 20260507144629 | 17 | 101 | 0.0 | 11.3 | 0.00 | 0.08 | 0.05 | 54 | 1017.5 |
| 20260507144526 | 17 | 111 | 0.0 | 11.3 | 0.00 | 0.08 | 0.05 | 54 | 1017.5 |
| 20260507144426 | 17 | 123 | 0.0 | 11.3 | 0.00 | 0.08 | 0.05 | 55 | 1017.5 |
| 20260507144326 | 17 | 124 | 1.6 | 14.5 | 0.00 | 0.08 | 0.05 | 56 | 1017.5 |
| 20260507144225 | 17 | 94 | 1.6 | 14.5 | 0.00 | 0.08 | 0.05 | 55 | 1017.5 |
| 20260507144126 | 17 | 108 | 1.6 | 14.5 | 0.00 | 0.08 | 0.05 | 55 | 1017.5 |
| 20260507144025 | 17 | 142 | 1.6 | 14.5 | 0.00 | 0.08 | 0.05 | 54 | 1017.5 |
| 20260507143925 | 17 | 115 | 1.6 | 14.5 | 0.00 | 0.08 | 0.05 | 57 | 1017.5 |
| 20260507143825 | 17 | 125 | 1.6 | 14.5 | 0.00 | 0.08 | 0.05 | 54 | 1017.5 |
| 20260507143726 | 17 | 108 | 1.6 | 14.5 | 0.00 | 0.08 | 0.05 | 54 | 1017.5 |
| 20260507143627 | 17 | 121 | 1.6 | 14.5 | 0.00 | 0.08 | 0.05 | 55 | 1017.5 |
| 20260507143525 | 17 | 117 | 1.6 | 14.5 | 0.00 | 0.08 | 0.05 | 55 | 1017.5 |
| 20260507143425 | 17 | 90 | 1.6 | 14.5 | 0.00 | 0.08 | 0.05 | 55 | 1017.5 |
| 20260507143331 | 17 | 132 | 0.0 | 11.3 | 0.00 | 0.08 | 0.05 | 55 | 1017.5 |
| 20260507143226 | 17 | 88 | 0.0 | 11.3 | 0.00 | 0.08 | 0.05 | 54 | 1017.4 |
| 20260507143125 | 17 | 72 | 0.0 | 11.3 | 0.00 | 0.08 | 0.05 | 54 | 1017.5 |
| 20260507143026 | 17 | 104 | 0.0 | 11.3 | 0.00 | 0.08 | 0.05 | 54 | 1017.4 |
| 20260507142925 | 17 | 95 | 0.0 | 6.4 | 0.00 | 0.08 | 0.05 | 53 | 1017.4 |
| 20260507142829 | 17 | 116 | 0.0 | 6.4 | 0.00 | 0.08 | 0.05 | 55 | 1017.4 |
| 20260507142725 | 17 | 128 | 0.0 | 6.4 | 0.00 | 0.08 | 0.05 | 55 | 1017.4 |
| 20260507142621 | 17 | 128 | 0.0 | 6.4 | 0.00 | 0.08 | 0.05 | 54 | 1017.4 |
| 20260507142522 | 17 | 109 | 0.0 | 6.4 | 0.00 | 0.08 | 0.05 | 55 | 1017.4 |
| 20260507142421 | 17 | 113 | 0.0 | 1.6 | 0.00 | 0.08 | 0.05 | 53 | 1017.4 |
| 20260507142324 | 17 | 55 | 0.0 | 1.6 | 0.00 | 0.08 | 0.05 | 53 | 1017.5 |
| 20260507142221 | 17 | 109 | 0.0 | 3.2 | 0.00 | 0.08 | 0.05 | 52 | 1017.5 |
| 20260507142124 | 17 | 156 | 0.0 | 3.2 | 0.00 | 0.08 | 0.05 | 51 | 1017.4 |
| 20260507142020 | 17 | 150 | 0.0 | 3.2 | 0.00 | 0.08 | 0.05 | 52 | 1017.5 |
| 20260507141923 | 17 | 78 | 0.0 | 3.2 | 0.00 | 0.08 | 0.05 | 54 | 1017.5 |
| 20260507141821 | 17 | 153 | 0.0 | 3.2 | 0.00 | 0.08 | 0.05 | 53 | 1017.5 |
| 20260507141723 | 17 | 65 | 0.0 | 3.2 | 0.00 | 0.08 | 0.05 | 59 | 1017.5 |
| 20260507141621 | 17 | 88 | 0.0 | 3.2 | 0.00 | 0.08 | 0.05 | 58 | 1017.5 |
| 20260507141522 | 17 | 105 | 0.0 | 3.2 | 0.00 | 0.08 | 0.05 | 59 | 1017.5 |
| 20260507141416 | 17 | 127 | 0.0 | 3.2 | 0.00 | 0.08 | 0.05 | 56 | 1017.6 |
| 20260507141327 | 17 | 151 | 0.0 | 3.2 | 0.00 | 0.08 | 0.05 | 55 | 1017.5 |
| 20260507141213 | 17 | 120 | 0.0 | 1.6 | 0.00 | 0.08 | 0.05 | 54 | 1017.6 |
| 20260507141116 | 17 | 135 | 0.0 | 3.2 | 0.00 | 0.08 | 0.05 | 55 | 1017.6 |
| 20260507141012 | 17 | 112 | 0.0 | 9.7 | 0.00 | 0.08 | 0.05 | 54 | 1017.6 |
| 20260507140909 | 17 | 113 | 0.0 | 9.7 | 0.00 | 0.08 | 0.05 | 55 | 1017.6 |
| 20260507140809 | 17 | 117 | 0.0 | 9.7 | 0.00 | 0.08 | 0.05 | 56 | 1017.6 |
| 20260507140710 | 17 | 53 | 0.0 | 9.7 | 0.00 | 0.08 | 0.05 | 56 | 1017.6 |
| 20260507140612 | 17 | 107 | 0.0 | 9.7 | 0.00 | 0.08 | 0.05 | 53 | 1017.6 |
| 20260507140509 | 17 | 105 | 0.0 | 9.7 | 0.00 | 0.08 | 0.05 | 55 | 1017.6 |
| 20260507140411 | 17 | 59 | 0.0 | 9.7 | 0.00 | 0.08 | 0.05 | 56 | 1017.6 |
| 20260507140317 | 17 | 56 | 0.0 | 9.7 | 0.00 | 0.08 | 0.05 | 55 | 1017.6 |
| 20260507140208 | 17 | 74 | 0.0 | 9.7 | 0.00 | 0.08 | 0.05 | 56 | 1017.6 |
| 20260507140106 | 17 | 137 | 1.6 | 12.9 | 0.00 | 0.08 | 0.05 | 57 | 1017.6 |
| 20260507140006 | 17 | 81 | 1.6 | 16.1 | 0.00 | 0.08 | 0.05 | 55 | 1017.6 |
| 20260507135903 | 17 | 126 | 1.6 | 16.1 | 0.00 | 0.08 | 0.05 | 56 | 1017.6 |
| 20260507135809 | 17 | 121 | 1.6 | 16.1 | 0.00 | 0.08 | 0.05 | 57 | 1017.6 |
| 20260507135704 | 17 | 106 | 1.6 | 16.1 | 0.00 | 0.08 | 0.05 | 56 | 1017.6 |
| 20260507135603 | 17 | 114 | 1.6 | 16.1 | 0.00 | 0.08 | 0.05 | 55 | 1017.7 |
| 20260507135502 | 17 | 61 | 1.6 | 16.1 | 0.00 | 0.08 | 0.05 | 56 | 1017.7 |
| 20260507135401 | 17 | 92 | 1.6 | 16.1 | 0.00 | 0.08 | 0.05 | 60 | 1017.7 |
| 20260507135307 | 17 | 110 | 1.6 | 16.1 | 0.00 | 0.08 | 0.05 | 58 | 1017.7 |
| 20260507135203 | 17 | 76 | 1.6 | 16.1 | 0.00 | 0.08 | 0.05 | 59 | 1017.7 |
| 20260507135104 | 17 | 92 | 1.6 | 16.1 | 0.00 | 0.08 | 0.05 | 57 | 1017.7 |
| 20260507134959 | 17 | 115 | 0.0 | 14.5 | 0.00 | 0.08 | 0.05 | 58 | 1017.7 |
| 20260507134900 | 17 | 92 | 0.0 | 12.9 | 0.00 | 0.08 | 0.05 | 56 | 1017.7 |
| 20260507134756 | 17 | 115 | 0.0 | 12.9 | 0.00 | 0.08 | 0.05 | 55 | 1017.6 |
| 20260507134659 | 17 | 134 | 0.0 | 12.9 | 0.00 | 0.08 | 0.05 | 56 | 1017.7 |
| 20260507134557 | 17 | 49 | 0.0 | 12.9 | 0.00 | 0.08 | 0.05 | 56 | 1017.7 |
| 20260507134500 | 17 | 49 | 0.0 | 12.9 | 0.00 | 0.08 | 0.05 | 56 | 1017.7 |
| 20260507134358 | 17 | 61 | 0.0 | 12.9 | 0.00 | 0.08 | 0.05 | 57 | 1017.7 |
| 20260507134303 | 17 | 78 | 0.0 | 12.9 | 0.00 | 0.08 | 0.05 | 59 | 1017.7 |
| 20260507134157 | 17 | 58 | 0.0 | 12.9 | 0.00 | 0.08 | 0.05 | 57 | 1017.6 |
| 20260507134057 | 17 | 123 | 0.0 | 9.7 | 0.00 | 0.08 | 0.05 | 56 | 1017.7 |
| 20260507133957 | 17 | 119 | 0.0 | 9.7 | 0.00 | 0.08 | 0.05 | 57 | 1017.7 |
| 20260507133856 | 17 | 53 | 0.0 | 3.2 | 0.00 | 0.08 | 0.05 | 57 | 1017.7 |
| 20260507133750 | 17 | 123 | 0.0 | 3.2 | 0.00 | 0.08 | 0.05 | 59 | 1017.7 |
| 20260507133650 | 17 | 82 | 0.0 | 3.2 | 0.00 | 0.08 | 0.05 | 59 | 1017.7 |
| 20260507133549 | 17 | 49 | 0.0 | 3.2 | 0.00 | 0.08 | 0.05 | 56 | 1017.7 |
| 20260507133450 | 17 | 134 | 0.0 | 3.2 | 0.00 | 0.08 | 0.05 | 54 | 1017.7 |
| 20260507133349 | 17 | 98 | 0.0 | 3.2 | 0.00 | 0.08 | 0.05 | 55 | 1017.7 |
| 20260507133249 | 17 | 21 | 0.0 | 3.2 | 0.00 | 0.08 | 0.05 | 55 | 1017.8 |
| 20260507133149 | 17 | 68 | 0.0 | 3.2 | 0.00 | 0.08 | 0.05 | 56 | 1017.8 |
| 20260507133052 | 17 | 63 | 0.0 | 3.2 | 0.00 | 0.08 | 0.05 | 56 | 1017.8 |
| 20260507132949 | 17 | 30 | 0.0 | 6.4 | 0.00 | 0.08 | 0.05 | 55 | 1017.8 |
| 20260507132852 | 17 | 19 | 1.6 | 6.4 | 0.00 | 0.08 | 0.05 | 57 | 1017.8 |
| 20260507132752 | 17 | 53 | 0.0 | 11.3 | 0.00 | 0.08 | 0.05 | 58 | 1017.8 |
| 20260507132649 | 17 | 66 | 0.0 | 11.3 | 0.00 | 0.08 | 0.05 | 59 | 1017.8 |
| 20260507132549 | 17 | 119 | 0.0 | 11.3 | 0.00 | 0.08 | 0.05 | 56 | 1017.8 |
| 20260507132452 | 17 | 109 | 0.0 | 11.3 | 0.00 | 0.08 | 0.05 | 55 | 1017.8 |
| 20260507132352 | 17 | 102 | 0.0 | 11.3 | 0.00 | 0.08 | 0.05 | 55 | 1017.8 |
| 20260507132254 | 17 | 131 | 0.0 | 11.3 | 0.00 | 0.08 | 0.05 | 54 | 1017.8 |
| 20260507132149 | 17 | 107 | 0.0 | 11.3 | 0.00 | 0.08 | 0.05 | 55 | 1017.8 |
| 20260507132049 | 17 | 105 | 0.0 | 11.3 | 0.00 | 0.08 | 0.05 | 56 | 1017.8 |
| 20260507131950 | 17 | 128 | 0.0 | 11.3 | 0.00 | 0.08 | 0.05 | 54 | 1017.8 |
| 20260507131847 | 17 | 125 | 0.0 | 11.3 | 0.00 | 0.08 | 0.05 | 57 | 1017.9 |
| 20260507131748 | 17 | 117 | 0.0 | 9.7 | 0.00 | 0.08 | 0.05 | 56 | 1017.9 |
| 20260507131645 | 17 | 67 | 0.0 | 9.7 | 0.00 | 0.08 | 0.05 | 55 | 1017.9 |
| 20260507131544 | 17 | 87 | 0.0 | 9.7 | 0.00 | 0.08 | 0.05 | 57 | 1017.9 |
| 20260507131445 | 17 | 134 | 0.0 | 9.7 | 0.00 | 0.08 | 0.05 | 55 | 1017.9 |
| 20260507131345 | 17 | 148 | 0.0 | 9.7 | 0.00 | 0.08 | 0.05 | 57 | 1017.9 |
| 20260507131251 | 17 | 99 | 0.0 | 9.7 | 0.00 | 0.08 | 0.05 | 54 | 1017.9 |
| 20260507131146 | 17 | 99 | 0.0 | 9.7 | 0.00 | 0.08 | 0.05 | 54 | 1018.0 |
| 20260507131045 | 17 | 100 | 0.0 | 9.7 | 0.00 | 0.08 | 0.05 | 57 | 1018.0 |
| 20260507130945 | 17 | 74 | 0.0 | 9.7 | 0.00 | 0.08 | 0.05 | 56 | 1017.9 |
| 20260507130845 | 17 | 104 | 0.0 | 9.7 | 0.00 | 0.08 | 0.05 | 57 | 1017.9 |
| 20260507130749 | 17 | 139 | 0.0 | 6.4 | 0.00 | 0.08 | 0.05 | 55 | 1018.0 |
| 20260507130645 | 17 | 116 | 0.0 | 4.8 | 0.00 | 0.08 | 0.05 | 55 | 1018.0 |
| 20260507130545 | 17 | 86 | 0.0 | 4.8 | 0.00 | 0.08 | 0.05 | 57 | 1018.0 |
| 20260507130445 | 17 | 119 | 0.0 | 4.8 | 0.00 | 0.08 | 0.05 | 56 | 1018.0 |
| 20260507130350 | 17 | 102 | 0.0 | 4.8 | 0.00 | 0.08 | 0.05 | 56 | 1018.0 |
| 20260507130245 | 17 | 127 | 0.0 | 3.2 | 0.00 | 0.08 | 0.05 | 55 | 1018.0 |
| 20260507130151 | 17 | 80 | 0.0 | 1.6 | 0.00 | 0.08 | 0.05 | 58 | 1018.0 |
| 20260507130048 | 17 | 79 | 0.0 | 1.6 | 0.00 | 0.08 | 0.05 | 59 | 1018.0 |
| 20260507125942 | 17 | 109 | 0.0 | 1.6 | 0.00 | 0.08 | 0.05 | 58 | 1018.0 |
| 20260507125843 | 17 | 132 | 0.0 | 1.6 | 0.00 | 0.08 | 0.05 | 58 | 1018.0 |
| 20260507125743 | 17 | 81 | 0.0 | 1.6 | 0.00 | 0.08 | 0.05 | 57 | 1018.0 |
| 20260507125640 | 17 | 105 | 0.0 | 1.6 | 0.00 | 0.08 | 0.05 | 58 | 1018.0 |
| 20260507125543 | 17 | 120 | 0.0 | 1.6 | 0.00 | 0.08 | 0.05 | 59 | 1018.0 |
| 20260507125514 | 17 | 103 | 0.0 | 1.6 | 0.00 | 0.08 | 0.05 | 58 | 1018.0 |
| 20260507125440 | 17 | 103 | 0.0 | 1.6 | 0.00 | 0.08 | 0.05 | 58 | 1018.0 |
| 20260507125343 | 17 | 86 | 0.0 | 1.6 | 0.00 | 0.08 | 0.05 | 57 | 1018.0 |
| 20260507125244 | 17 | 55 | 0.0 | 1.6 | 0.00 | 0.08 | 0.05 | 56 | 1018.0 |
| 20260507125142 | 17 | 153 | 0.0 | 1.6 | 0.00 | 0.08 | 0.05 | 57 | 1018.0 |
| 20260507125041 | 17 | 99 | 0.0 | 1.6 | 0.00 | 0.08 | 0.05 | 57 | 1018.1 |
| 20260507124941 | 17 | 120 | 0.0 | 1.6 | 0.00 | 0.08 | 0.05 | 59 | 1018.1 |
| 20260507124841 | 17 | 125 | 0.0 | 0.0 | 0.00 | 0.08 | 0.05 | 60 | 1018.1 |
| 20260507124735 | 17 | 121 | 0.0 | 0.0 | 0.00 | 0.08 | 0.05 | 57 | 1018.0 |
| 20260507124636 | 17 | 90 | 0.0 | 0.0 | 0.00 | 0.08 | 0.05 | 56 | 1018.0 |
| 20260507124532 | 17 | 65 | 0.0 | 0.0 | 0.00 | 0.08 | 0.05 | 57 | 1018.0 |
| 20260507124513 | 17 | 103 | 0.0 | 1.6 | 0.00 | 0.08 | 0.05 | 58 | 1018.1 |
| 20260507124433 | 17 | 99 | 0.0 | 0.0 | 0.00 | 0.08 | 0.05 | 57 | 1018.0 |
| 20260507124411 | 17 | 100 | 0.0 | 6.4 | 0.00 | 0.08 | 0.05 | 56 | 1018.0 |
| 20260507124333 | 17 | 103 | 0.0 | 1.6 | 0.00 | 0.08 | 0.05 | 58 | 1018.1 |
| 20260507124233 | 17 | 100 | 0.0 | 6.4 | 0.00 | 0.08 | 0.05 | 56 | 1018.0 |
| 20260507124134 | 17 | 101 | 0.0 | 6.4 | 0.00 | 0.08 | 0.05 | 57 | 1018.0 |
| 20260507124035 | 17 | 97 | 0.0 | 6.4 | 0.00 | 0.08 | 0.05 | 56 | 1018.1 |
| 20260507123935 | 17 | 63 | 0.0 | 11.3 | 0.00 | 0.08 | 0.05 | 57 | 1018.1 |
| 20260507123910 | 17 | 132 | 0.0 | 11.3 | 0.00 | 0.08 | 0.05 | 58 | 1018.1 |
| 20260507123833 | 17 | 80 | 0.0 | 11.3 | 0.00 | 0.08 | 0.05 | 59 | 1018.1 |
| 20260507123732 | 17 | 132 | 0.0 | 11.3 | 0.00 | 0.08 | 0.05 | 58 | 1018.1 |
| 20260507123632 | 17 | 113 | 0.0 | 11.3 | 0.00 | 0.08 | 0.05 | 57 | 1018.1 |
| 20260507123529 | 17 | 99 | 0.0 | 11.3 | 0.00 | 0.08 | 0.05 | 58 | 1018.1 |
| 20260507123427 | 17 | 109 | 0.0 | 11.3 | 0.00 | 0.08 | 0.05 | 59 | 1018.1 |
| 20260507123330 | 17 | 113 | 0.0 | 11.3 | 0.00 | 0.08 | 0.05 | 59 | 1018.0 |
| 20260507123228 | 17 | 123 | 0.0 | 11.3 | 0.00 | 0.08 | 0.05 | 58 | 1018.1 |
| 20260507123128 | 17 | 96 | 0.0 | 11.3 | 0.00 | 0.08 | 0.05 | 60 | 1018.1 |
| 20260507123020 | 16 | 86 | 0.0 | 11.3 | 0.00 | 0.08 | 0.05 | 60 | 1018.1 |
| 20260507122922 | 16 | 119 | 0.0 | 4.8 | 0.00 | 0.08 | 0.05 | 59 | 1018.1 |
| 20260507122821 | 16 | 112 | 0.0 | 9.7 | 0.00 | 0.08 | 0.05 | 60 | 1018.1 |
| 20260507122718 | 16 | 112 | 0.0 | 9.7 | 0.00 | 0.08 | 0.05 | 63 | 1018.1 |
| 20260507122618 | 16 | 111 | 0.0 | 9.7 | 0.00 | 0.08 | 0.05 | 60 | 1018.1 |
| 20260507122520 | 16 | 138 | 0.0 | 9.7 | 0.00 | 0.08 | 0.05 | 59 | 1018.1 |
| 20260507122416 | 16 | 129 | 0.0 | 9.7 | 0.00 | 0.08 | 0.05 | 61 | 1018.1 |
| 20260507122318 | 16 | 131 | 0.0 | 12.9 | 0.00 | 0.08 | 0.05 | 60 | 1018.1 |
| 20260507122218 | 16 | 101 | 0.0 | 12.9 | 0.00 | 0.08 | 0.05 | 60 | 1018.1 |
| 20260507122116 | 16 | 139 | 0.0 | 12.9 | 0.00 | 0.08 | 0.05 | 60 | 1018.2 |
| 20260507122008 | 16 | 109 | 0.0 | 12.9 | 0.00 | 0.08 | 0.05 | 59 | 1018.2 |
| 20260507121907 | 16 | 110 | 0.0 | 12.9 | 0.00 | 0.08 | 0.05 | 63 | 1018.1 |
| 20260507121807 | 16 | 98 | 0.0 | 12.9 | 0.00 | 0.08 | 0.05 | 60 | 1018.1 |
| 20260507121705 | 16 | 144 | 0.0 | 12.9 | 0.00 | 0.08 | 0.05 | 61 | 1018.1 |
| 20260507121604 | 16 | 106 | 0.0 | 12.9 | 0.00 | 0.08 | 0.05 | 63 | 1018.2 |
| 20260507121504 | 16 | 109 | 0.0 | 12.9 | 0.00 | 0.08 | 0.05 | 62 | 1018.2 |
| 20260507121502 | 16 | 109 | 0.0 | 12.9 | 0.00 | 0.08 | 0.05 | 62 | 1018.2 |
| 20260507121403 | 16 | 115 | 0.0 | 12.9 | 0.00 | 0.08 | 0.05 | 61 | 1018.1 |
| 20260507121302 | 16 | 135 | 0.0 | 8.0 | 0.00 | 0.08 | 0.05 | 64 | 1018.1 |
| 20260507121201 | 16 | 109 | 0.0 | 9.7 | 0.00 | 0.08 | 0.05 | 63 | 1018.2 |
| 20260507121103 | 16 | 88 | 0.0 | 9.7 | 0.00 | 0.08 | 0.05 | 65 | 1018.1 |
| 20260507121000 | 16 | 111 | 0.0 | 9.7 | 0.00 | 0.08 | 0.05 | 63 | 1018.1 |
| 20260507120901 | 16 | 111 | 0.0 | 9.7 | 0.00 | 0.08 | 0.05 | 64 | 1018.1 |
| 20260507120756 | 16 | 111 | 0.0 | 9.7 | 0.00 | 0.08 | 0.05 | 63 | 1018.1 |
| 20260507120657 | 16 | 108 | 0.0 | 9.7 | 0.00 | 0.08 | 0.05 | 63 | 1018.1 |
| 20260507120557 | 16 | 148 | 0.0 | 9.7 | 0.00 | 0.08 | 0.05 | 64 | 1018.1 |
| 20260507120458 | 16 | 102 | 0.0 | 9.7 | 0.00 | 0.08 | 0.05 | 64 | 1018.1 |
| 20260507120351 | 16 | 146 | 0.0 | 9.7 | 0.00 | 0.08 | 0.05 | 63 | 1018.0 |
| 20260507120253 | 16 | 137 | 0.0 | 9.7 | 0.00 | 0.08 | 0.05 | 64 | 1018.1 |
| 20260507120151 | 16 | 134 | 0.0 | 0.0 | 0.00 | 0.08 | 0.05 | 63 | 1018.1 |
| 20260507120053 | 16 | 121 | 0.0 | 0.0 | 0.00 | 0.08 | 0.05 | 63 | 1018.1 |
| 20260507115951 | 16 | 123 | 0.0 | 0.0 | 0.00 | 0.08 | 0.05 | 64 | 1018.1 |
| 20260507115847 | 16 | 128 | 0.0 | 0.0 | 0.00 | 0.08 | 0.05 | 63 | 1018.1 |
| 20260507115749 | 16 | 63 | 0.0 | 1.6 | 0.00 | 0.08 | 0.05 | 60 | 1018.1 |
| 20260507115645 | 16 | 59 | 0.0 | 1.6 | 0.00 | 0.08 | 0.05 | 60 | 1018.1 |
| 20260507115440 | 16 | 68 | 0.0 | 11.3 | 0.00 | 0.08 | 0.05 | 62 | 1018.1 |
| 20260507115337 | 16 | 80 | 0.0 | 11.3 | 0.00 | 0.08 | 0.05 | 63 | 1018.1 |
| 20260507115237 | 16 | 66 | 0.0 | 11.3 | 0.00 | 0.08 | 0.05 | 64 | 1018.2 |
| 20260507115039 | 16 | 126 | 0.0 | 11.3 | 0.00 | 0.08 | 0.05 | 66 | 1018.1 |
| 20260507114932 | 16 | 133 | 0.0 | 11.3 | 0.00 | 0.08 | 0.05 | 66 | 1018.1 |
| 20260507114833 | 16 | 119 | 0.0 | 11.3 | 0.00 | 0.08 | 0.05 | 63 | 1018.1 |
| 20260507114731 | 16 | 115 | 0.0 | 11.3 | 0.00 | 0.08 | 0.05 | 63 | 1018.1 |
| 20260507114630 | 16 | 121 | 0.0 | 11.3 | 0.00 | 0.08 | 0.05 | 65 | 1018.1 |
| 20260507114532 | 16 | 117 | 0.0 | 11.3 | 0.00 | 0.08 | 0.05 | 64 | 1018.1 |
| 20260507114427 | 16 | 128 | 0.0 | 6.4 | 0.00 | 0.08 | 0.05 | 65 | 1018.1 |
| 20260507114327 | 16 | 126 | 0.0 | 6.4 | 0.00 | 0.08 | 0.05 | 66 | 1018.1 |
| 20260507114227 | 16 | 109 | 0.0 | 6.4 | 0.00 | 0.08 | 0.05 | 65 | 1018.1 |
| 20260507114125 | 16 | 105 | 0.0 | 6.4 | 0.00 | 0.08 | 0.05 | 63 | 1018.1 |
| 20260507114024 | 16 | 137 | 0.0 | 6.4 | 0.00 | 0.08 | 0.05 | 63 | 1018.1 |
| 20260507113923 | 16 | 100 | 0.0 | 6.4 | 0.00 | 0.08 | 0.05 | 64 | 1018.1 |
| 20260507113819 | 16 | 99 | 0.0 | 6.4 | 0.00 | 0.08 | 0.05 | 64 | 1018.2 |
| 20260507113720 | 16 | 98 | 0.0 | 6.4 | 0.00 | 0.08 | 0.05 | 66 | 1018.2 |
| 20260507113619 | 16 | 102 | 0.0 | 4.8 | 0.00 | 0.08 | 0.05 | 65 | 1018.2 |
| 20260507113522 | 16 | 130 | 0.0 | 4.8 | 0.00 | 0.08 | 0.05 | 66 | 1018.2 |
| 20260507113420 | 16 | 130 | 0.0 | 4.8 | 0.00 | 0.08 | 0.05 | 68 | 1018.2 |
| 20260507113317 | 16 | 117 | 0.0 | 4.8 | 0.00 | 0.08 | 0.05 | 68 | 1018.3 |
| 20260507113217 | 16 | 136 | 0.0 | 1.6 | 0.00 | 0.08 | 0.05 | 68 | 1018.3 |
| 20260507113115 | 16 | 53 | 0.0 | 1.6 | 0.00 | 0.08 | 0.05 | 68 | 1018.3 |
| 20260507113016 | 16 | 109 | 0.0 | 1.6 | 0.00 | 0.08 | 0.05 | 101.8 | |
| 20260507112909 | 16 | 169 | 0.0 | 0.0 | 0.00 | 0.08 | 0.05 | 67 | 1018.3 |
| 20260507112810 | 16 | 59 | 0.0 | 0.0 | 0.00 | 0.08 | 0.05 | 67 | 1018.3 |
| 20260507112708 | 16 | 109 | 0.0 | 0.0 | 0.00 | 0.08 | 0.05 | 69 | 1018.3 |
| 20260507112607 | 16 | 107 | 0.0 | 0.0 | 0.00 | 0.08 | 0.05 | 69 | 1018.3 |
| 20260507112509 | 16 | 116 | 0.0 | 0.0 | 0.00 | 0.08 | 0.05 | 71 | 1018.5 |
| 20260507112405 | 16 | 85 | 0.0 | 0.0 | 0.00 | 0.08 | 0.05 | 71 | 1018.3 |
| 20260507112307 | 15 | 119 | 0.0 | 0.0 | 0.00 | 0.08 | 0.05 | 68 | 1018.3 |
| 20260507112208 | 15 | 28 | 0.0 | 3.2 | 0.00 | 0.08 | 0.05 | 67 | 1018.3 |
| 20260507112103 | 15 | 33 | 0.0 | 3.2 | 0.00 | 0.08 | 0.05 | 70 | 1018.5 |
| 20260507112002 | 15 | 65 | 0.0 | 11.3 | 0.00 | 0.08 | 0.05 | 70 | 1018.3 |
| 20260507111900 | 15 | 105 | 0.0 | 11.3 | 0.00 | 0.08 | 0.05 | 71 | 1018.5 |
| 20260507111802 | 15 | 67 | 0.0 | 11.3 | 0.00 | 0.08 | 0.05 | 67 | 1018.3 |
| 20260507111702 | 15 | 68 | 0.0 | 11.3 | 0.00 | 0.08 | 0.05 | 69 | 1018.5 |
| 20260507111555 | 15 | 88 | 0.0 | 11.3 | 0.00 | 0.08 | 0.05 | 72 | 1018.3 |
| 20260507111459 | 15 | 111 | 0.0 | 11.3 | 0.00 | 0.08 | 0.05 | 70 | 1018.5 |
| 20260507111358 | 15 | 142 | 0.0 | 11.3 | 0.00 | 0.08 | 0.05 | 71 | 1018.3 |
| 20260507111253 | 15 | 46 | 0.0 | 11.3 | 0.00 | 0.08 | 0.05 | 70 | 1018.5 |
| 20260507111155 | 15 | 135 | 0.0 | 11.3 | 0.00 | 0.08 | 0.05 | 70 | 1018.5 |
| 20260507111054 | 15 | 83 | 0.0 | 11.3 | 0.00 | 0.08 | 0.05 | 70 | 1018.5 |
| 20260507110951 | 15 | 119 | 0.0 | 9.7 | 0.00 | 0.08 | 0.05 | 71 | 1018.5 |
| 20260507110848 | 15 | 107 | 0.0 | 9.7 | 0.00 | 0.08 | 0.05 | 70 | 1018.5 |
| 20260507110749 | 15 | 51 | 0.0 | 6.4 | 0.00 | 0.08 | 0.05 | 71 | 1018.5 |
| 20260507110649 | 15 | 131 | 0.0 | 6.4 | 0.00 | 0.08 | 0.05 | 72 | 1018.5 |
| 20260507110548 | 15 | 49 | 0.0 | 6.4 | 0.00 | 0.08 | 0.05 | 71 | 1018.6 |
| 20260507110446 | 15 | 112 | 0.0 | 6.4 | 0.00 | 0.08 | 0.05 | 71 | 1018.5 |
| 20260507110339 | 15 | 119 | 0.0 | 6.4 | 0.00 | 0.08 | 0.05 | 71 | 1018.5 |
| 20260507110240 | 15 | 111 | 0.0 | 0.0 | 0.00 | 0.08 | 0.05 | 70 | 1018.5 |
| 20260507110137 | 15 | 94 | 0.0 | 0.0 | 0.00 | 0.08 | 0.05 | 71 | 1018.5 |
| 20260507110037 | 15 | 104 | 0.0 | 0.0 | 0.00 | 0.08 | 0.05 | 71 | 1018.5 |
| 20260507105939 | 15 | 109 | 0.0 | 1.6 | 0.00 | 0.08 | 0.05 | 70 | 1018.5 |
| 20260507105837 | 15 | 113 | 0.0 | 1.6 | 0.00 | 0.08 | 0.05 | 71 | 1018.5 |
| 20260507105735 | 15 | 96 | 0.0 | 6.4 | 0.00 | 0.08 | 0.05 | 69 | 1018.5 |
| 20260507105640 | 15 | 120 | 0.0 | 6.4 | 0.00 | 0.08 | 0.05 | 70 | 1018.5 |
| 20260507105531 | 15 | 62 | 0.0 | 6.4 | 0.00 | 0.08 | 0.05 | 70 | 1018.5 |
| 20260507105433 | 15 | 103 | 0.0 | 6.4 | 0.00 | 0.08 | 0.05 | 71 | 1018.5 |
| 20260507105327 | 15 | 120 | 0.0 | 6.4 | 0.00 | 0.08 | 0.05 | 70 | 1018.5 |
| 20260507105228 | 15 | 111 | 0.0 | 6.4 | 0.00 | 0.08 | 0.05 | 70 | 1018.5 |
| 20260507105128 | 15 | 111 | 0.0 | 6.4 | 0.00 | 0.08 | 0.05 | 72 | 1018.5 |
| 20260507105025 | 15 | 101 | 1.6 | 14.5 | 0.00 | 0.08 | 0.05 | 73 | 1018.5 |
| 20260507104924 | 15 | 127 | 1.6 | 14.5 | 0.00 | 0.08 | 0.05 | 73 | 1018.5 |
| 20260507104824 | 15 | 91 | 1.6 | 14.5 | 0.00 | 0.08 | 0.05 | 73 | 1018.5 |
| 20260507104723 | 15 | 129 | 1.6 | 14.5 | 0.00 | 0.08 | 0.05 | 72 | 1018.5 |
| 20260507104621 | 15 | 117 | 1.6 | 14.5 | 0.00 | 0.08 | 0.05 | 72 | 1018.5 |
| 20260507104521 | 15 | 117 | 1.6 | 14.5 | 0.00 | 0.08 | 0.05 | 71 | 1018.5 |
| 20260507104421 | 15 | 96 | 1.6 | 14.5 | 0.00 | 0.08 | 0.05 | 71 | 1018.5 |
| 20260507104315 | 15 | 71 | 1.6 | 14.5 | 0.00 | 0.08 | 0.05 | 73 | 1018.5 |
| 20260507104212 | 15 | 135 | 1.6 | 14.5 | 0.00 | 0.08 | 0.05 | 70 | 1018.5 |
| 20260507104113 | 15 | 92 | 3.2 | 14.5 | 0.00 | 0.08 | 0.05 | 71 | 1018.5 |
| 20260507104013 | 15 | 107 | 3.2 | 12.9 | 0.00 | 0.08 | 0.05 | 72 | 1018.5 |
| 20260507103916 | 15 | 74 | 3.2 | 12.9 | 0.00 | 0.08 | 0.05 | 72 | 1018.5 |
| 20260507103807 | 15 | 114 | 3.2 | 12.9 | 0.00 | 0.08 | 0.05 | 72 | 1018.3 |
| 20260507103704 | 15 | 114 | 1.6 | 12.9 | 0.00 | 0.08 | 0.05 | 73 | 1018.5 |
| 20260507103605 | 16 | 94 | 1.6 | 12.9 | 0.00 | 0.08 | 0.05 | 74 | 1018.3 |
| 20260507103505 | 15 | 126 | 1.6 | 9.7 | 0.00 | 0.08 | 0.05 | 74 | 1018.3 |
| 20260507103403 | 15 | 131 | 1.6 | 9.7 | 0.00 | 0.08 | 0.05 | 72 | 1018.5 |
| 20260507103302 | 15 | 109 | 1.6 | 9.7 | 0.00 | 0.08 | 0.05 | 72 | 1018.5 |
| 20260507103203 | 15 | 88 | 0.0 | 9.7 | 0.00 | 0.08 | 0.05 | 71 | 1018.5 |
| 20260507103105 | 15 | 105 | 0.0 | 9.7 | 0.00 | 0.08 | 0.05 | 72 | 1018.5 |
| 20260507103002 | 15 | 129 | 0.0 | 6.4 | 0.00 | 0.08 | 0.05 | 71 | 1018.5 |
| 20260507102903 | 16 | 111 | 0.0 | 6.4 | 0.00 | 0.08 | 0.05 | 70 | 1018.5 |
| 20260507102757 | 16 | 136 | 0.0 | 6.4 | 0.00 | 0.08 | 0.05 | 71 | 1018.5 |
| 20260507102657 | 16 | 131 | 0.0 | 6.4 | 0.00 | 0.08 | 0.05 | 70 | 1018.5 |
| 20260507102554 | 16 | 80 | 0.0 | 3.2 | 0.00 | 0.08 | 0.05 | 71 | 1018.3 |
| 20260507102454 | 16 | 69 | 0.0 | 3.2 | 0.00 | 0.08 | 0.05 | 73 | 1018.3 |
| 20260507102354 | 16 | 109 | 0.0 | 3.2 | 0.00 | 0.08 | 0.05 | 71 | 1018.3 |
| 20260507102258 | 16 | 74 | 0.0 | 9.7 | 0.00 | 0.08 | 0.05 | 73 | 1018.5 |
| 20260507102155 | 15 | 80 | 1.6 | 11.3 | 0.00 | 0.08 | 0.05 | 73 | 1018.5 |
| 20260507102053 | 15 | 128 | 1.6 | 14.5 | 0.00 | 0.08 | 0.05 | 71 | 1018.5 |
| 20260507101948 | 15 | 128 | 3.2 | 16.1 | 0.00 | 0.08 | 0.05 | 72 | 1018.5 |
| 20260507101852 | 15 | 103 | 3.2 | 16.1 | 0.00 | 0.08 | 0.05 | 74 | 1018.5 |
| 20260507101748 | 15 | 133 | 3.2 | 16.1 | 0.00 | 0.08 | 0.05 | 72 | 1018.3 |
| 20260507101647 | 15 | 78 | 3.2 | 16.1 | 0.00 | 0.08 | 0.05 | 72 | 1018.5 |
| 20260507101547 | 15 | 137 | 3.2 | 16.1 | 0.00 | 0.08 | 0.05 | 75 | 1018.3 |
| 20260507101448 | 15 | 128 | 3.2 | 16.1 | 0.00 | 0.00 | 0.00 | ||
| 20260507101445 | 15 | 128 | 3.2 | 16.1 | 0.00 | 0.08 | 0.05 | 71 | 1018.3 |
| 20260507101345 | 15 | 146 | 3.2 | 16.1 | 0.00 | 0.08 | 0.05 | 72 | 1018.5 |
| 20260507101236 | 15 | 103 | 3.2 | 16.1 | 0.00 | 0.08 | 0.05 | 71 | 1018.3 |
| 20260507101137 | 15 | 140 | 3.2 | 16.1 | 0.00 | 0.08 | 0.05 | 72 | 1018.5 |
| 20260507101037 | 15 | 148 | 1.6 | 16.1 | 0.00 | 0.08 | 0.05 | 71 | 1018.5 |
| 20260507100937 | 15 | 136 | 1.6 | 14.5 | 0.00 | 0.08 | 0.05 | 73 | 1018.3 |
| 20260507100835 | 15 | 71 | 0.0 | 9.7 | 0.00 | 0.08 | 0.05 | 72 | 1018.3 |
| 20260507100730 | 15 | 106 | 0.0 | 8.0 | 0.00 | 0.08 | 0.05 | 72 | 1018.5 |
| 20260507100630 | 15 | 82 | 0.0 | 8.0 | 0.00 | 0.08 | 0.05 | 72 | 1018.5 |
| 20260507100532 | 15 | 153 | 0.0 | 8.0 | 0.00 | 0.08 | 0.05 | 72 | 1018.5 |
| 20260507100432 | 15 | 161 | 0.0 | 8.0 | 0.00 | 0.08 | 0.05 | 71 | 1018.5 |
| 20260507100331 | 15 | 91 | 0.0 | 11.3 | 0.00 | 0.08 | 0.05 | 70 | 1018.6 |
| 20260507100229 | 15 | 168 | 0.0 | 11.3 | 0.00 | 0.08 | 0.05 | 72 | 1018.6 |
| 20260507100123 | 15 | 136 | 0.0 | 11.3 | 0.00 | 0.08 | 0.05 | 74 | 1018.6 |
| 20260507100026 | 15 | 138 | 0.0 | 11.3 | 0.00 | 0.08 | 0.05 | 75 | 1018.6 |
| 20260507095923 | 15 | 99 | 0.0 | 11.3 | 0.00 | 0.08 | 0.05 | 73 | 1018.5 |
| 20260507095829 | 15 | 156 | 0.0 | 11.3 | 0.00 | 0.08 | 0.05 | 72 | 1018.5 |
| 20260507095717 | 15 | 156 | 0.0 | 11.3 | 0.00 | 0.08 | 0.05 | 72 | 1018.5 |
| 20260507095623 | 15 | 181 | 0.0 | 11.3 | 0.00 | 0.08 | 0.05 | 72 | 1018.6 |
| 20260507095517 | 15 | 136 | 1.6 | 11.3 | 0.00 | 0.08 | 0.05 | 73 | 1018.6 |
| 20260507095415 | 15 | 99 | 0.0 | 8.0 | 0.00 | 0.08 | 0.05 | 73 | 1018.6 |
| 20260507095315 | 15 | 164 | 1.6 | 8.0 | 0.00 | 0.08 | 0.05 | 73 | 1018.6 |
| 20260507095215 | 15 | 175 | 1.6 | 12.9 | 0.00 | 0.08 | 0.05 | 72 | 1018.6 |
| 20260507095116 | 15 | 159 | 1.6 | 12.9 | 0.00 | 0.08 | 0.05 | 73 | 1018.6 |
| 20260507095012 | 15 | 147 | 1.6 | 12.9 | 0.00 | 0.08 | 0.05 | 73 | 1018.6 |
| 20260507094909 | 15 | 146 | 1.6 | 12.9 | 0.00 | 0.08 | 0.05 | 74 | 1018.6 |
| 20260507094810 | 15 | 130 | 1.6 | 12.9 | 0.00 | 0.08 | 0.05 | 75 | 1018.6 |
| 20260507094709 | 15 | 130 | 1.6 | 12.9 | 0.00 | 0.08 | 0.05 | 74 | 1018.6 |
| 20260507094615 | 15 | 134 | 1.6 | 12.9 | 0.00 | 0.08 | 0.05 | 75 | 1018.6 |
| 20260507094507 | 15 | 120 | 1.6 | 12.9 | 0.00 | 0.08 | 0.05 | 74 | 1018.5 |
| 20260507094409 | 15 | 147 | 1.6 | 12.9 | 0.00 | 0.08 | 0.05 | 73 | 1018.5 |
| 20260507094307 | 15 | 134 | 0.0 | 12.9 | 0.00 | 0.08 | 0.05 | 74 | 1018.6 |
| 20260507094207 | 15 | 138 | 0.0 | 9.7 | 0.00 | 0.08 | 0.05 | 74 | 1018.5 |
| 20260507094103 | 15 | 133 | 0.0 | 8.0 | 0.00 | 0.08 | 0.05 | 74 | 1018.6 |
| 20260507094003 | 15 | 142 | 0.0 | 6.4 | 0.00 | 0.08 | 0.05 | 72 | 1018.6 |
| 20260507093904 | 15 | 144 | 0.0 | 6.4 | 0.00 | 0.08 | 0.05 | 72 | 1018.6 |
| 20260507093802 | 15 | 109 | 0.0 | 6.4 | 0.00 | 0.08 | 0.05 | 72 | 1018.6 |
| 20260507093701 | 15 | 109 | 0.0 | 6.4 | 0.00 | 0.08 | 0.05 | 72 | 1018.5 |
| 20260507093602 | 15 | 140 | 0.0 | 6.4 | 0.00 | 0.08 | 0.05 | 72 | 1018.6 |
| 20260507093501 | 15 | 106 | 0.0 | 6.4 | 0.00 | 0.08 | 0.05 | 71 | 1018.6 |
| 20260507093403 | 15 | 107 | 0.0 | 6.4 | 0.00 | 0.08 | 0.05 | 73 | 1018.6 |
| 20260507093301 | 15 | 140 | 0.0 | 6.4 | 0.00 | 0.08 | 0.05 | 73 | 1018.6 |
| 20260507093202 | 15 | 159 | 0.0 | 6.4 | 0.00 | 0.08 | 0.05 | 72 | 1018.6 |
| 20260507093107 | 15 | 134 | 0.0 | 6.4 | 0.00 | 0.08 | 0.05 | 72 | 1018.6 |
| 20260507093001 | 15 | 114 | 1.6 | 9.7 | 0.00 | 0.08 | 0.05 | 71 | 1018.6 |
| 20260507092900 | 15 | 99 | 1.6 | 9.7 | 0.00 | 0.08 | 0.05 | 71 | 1018.6 |
| 20260507092801 | 15 | 106 | 1.6 | 9.7 | 0.00 | 0.08 | 0.05 | 71 | 1018.6 |
| 20260507092701 | 15 | 107 | 1.6 | 11.3 | 0.00 | 0.08 | 0.05 | 70 | 1018.6 |
| 20260507092607 | 15 | 116 | 1.6 | 11.3 | 0.00 | 0.08 | 0.05 | 70 | 1018.6 |
| 20260507092502 | 15 | 97 | 1.6 | 11.3 | 0.00 | 0.08 | 0.05 | 70 | 1018.6 |
| 20260507092356 | 15 | 98 | 1.6 | 11.3 | 0.00 | 0.08 | 0.05 | 70 | 1018.6 |
| 20260507092259 | 15 | 138 | 1.6 | 11.3 | 0.00 | 0.08 | 0.05 | 70 | 1018.6 |
| 20260507092155 | 15 | 110 | 1.6 | 11.3 | 0.00 | 0.08 | 0.05 | 71 | 1018.6 |
| 20260507092101 | 15 | 117 | 1.6 | 11.3 | 0.00 | 0.08 | 0.05 | 72 | 1018.6 |
| 20260507091949 | 15 | 92 | 1.6 | 11.3 | 0.00 | 0.08 | 0.05 | 71 | 1018.6 |
| 20260507091848 | 15 | 127 | 1.6 | 11.3 | 0.00 | 0.08 | 0.05 | 70 | 1018.6 |
| 20260507091749 | 15 | 142 | 1.6 | 9.7 | 0.00 | 0.08 | 0.05 | 71 | 1018.5 |
| 20260507091647 | 15 | 115 | 1.6 | 9.7 | 0.00 | 0.08 | 0.05 | 73 | 1018.6 |
| 20260507091545 | 15 | 144 | 1.6 | 6.4 | 0.00 | 0.08 | 0.05 | 71 | 1018.6 |
| 20260507091438 | 15 | 32 | 1.6 | 6.4 | 0.00 | 0.08 | 0.05 | 71 | 1018.6 |
| 20260507091338 | 15 | 19 | 1.6 | 6.4 | 0.00 | 0.08 | 0.05 | 71 | 1018.6 |
| 20260507091236 | 15 | 92 | 1.6 | 6.4 | 0.00 | 0.08 | 0.05 | 70 | 1018.6 |
| 20260507091135 | 15 | 80 | 1.6 | 6.4 | 0.00 | 0.08 | 0.05 | 70 | 1018.6 |
| 20260507091037 | 15 | 167 | 1.6 | 6.4 | 0.00 | 0.08 | 0.05 | 70 | 1018.6 |
| 20260507090932 | 15 | 106 | 1.6 | 4.8 | 0.00 | 0.08 | 0.05 | 71 | 1018.6 |
| 20260507090836 | 15 | 111 | 1.6 | 4.8 | 0.00 | 0.08 | 0.05 | 71 | 1018.6 |
| 20260507090733 | 15 | 155 | 1.6 | 4.8 | 0.00 | 0.08 | 0.05 | 70 | 1018.6 |
| 20260507090635 | 15 | 155 | 1.6 | 4.8 | 0.00 | 0.08 | 0.05 | 70 | 1018.6 |
| 20260507090531 | 15 | 155 | 1.6 | 6.4 | 0.00 | 0.08 | 0.05 | 71 | 1018.6 |
| 20260507090431 | 15 | 165 | 1.6 | 6.4 | 0.00 | 0.08 | 0.05 | 72 | 1018.6 |
| 20260507090330 | 15 | 148 | 1.6 | 6.4 | 0.00 | 0.08 | 0.05 | 72 | 1018.6 |
| 20260507090231 | 15 | 109 | 0.0 | 6.4 | 0.00 | 0.08 | 0.05 | 72 | 1018.6 |
| 20260507090130 | 15 | 111 | 0.0 | 6.4 | 0.00 | 0.08 | 0.05 | 71 | 1018.6 |
| 20260507090032 | 15 | 46 | 0.0 | 6.4 | 0.00 | 0.08 | 0.05 | 70 | 1018.6 |
| 20260507085930 | 15 | 46 | 0.0 | 6.4 | 0.00 | 0.08 | 0.05 | 70 | 1018.6 |
| 20260507085830 | 15 | 46 | 0.0 | 6.4 | 0.00 | 0.08 | 0.05 | 72 | 1018.6 |
| 20260507085729 | 15 | 83 | 0.0 | 6.4 | 0.00 | 0.08 | 0.05 | 71 | 1018.6 |
| 20260507085631 | 15 | 86 | 0.0 | 6.4 | 0.00 | 0.08 | 0.05 | 71 | 1018.6 |
| 20260507085529 | 15 | 28 | 0.0 | 6.4 | 0.00 | 0.08 | 0.05 | 70 | 1018.6 |
| 20260507085431 | 15 | 40 | 0.0 | 6.4 | 0.00 | 0.08 | 0.05 | 70 | 1018.6 |
| 20260507085327 | 15 | 111 | 0.0 | 6.4 | 0.00 | 0.08 | 0.05 | 70 | 1018.6 |
| 20260507085227 | 15 | 89 | 0.0 | 6.4 | 0.00 | 0.08 | 0.05 | 72 | 1018.6 |
| 20260507085127 | 15 | 96 | 0.0 | 6.4 | 0.00 | 0.08 | 0.05 | 71 | 1018.6 |
| 20260507085024 | 15 | 119 | 0.0 | 6.4 | 0.00 | 0.08 | 0.05 | 72 | 1018.6 |
| 20260507084919 | 15 | 90 | 0.0 | 6.4 | 0.00 | 0.08 | 0.05 | 70 | 1018.5 |
| 20260507084815 | 15 | 67 | 0.0 | 6.4 | 0.00 | 0.08 | 0.05 | 72 | 1018.6 |
| 20260507084713 | 15 | 59 | 0.0 | 6.4 | 0.00 | 0.08 | 0.05 | 71 | 1018.6 |
| 20260507084611 | 15 | 86 | 0.0 | 4.8 | 0.00 | 0.08 | 0.05 | 72 | 1018.5 |
| 20260507084511 | 15 | 109 | 0.0 | 0.0 | 0.00 | 0.08 | 0.05 | 72 | 1018.5 |
| 20260507084411 | 15 | 109 | 0.0 | 8.0 | 0.00 | 0.08 | 0.05 | 71 | 1018.6 |
| 20260507084311 | 15 | 109 | 1.6 | 11.3 | 0.00 | 0.08 | 0.05 | 71 | 1018.5 |
| 20260507084211 | 15 | 109 | 1.6 | 11.3 | 0.00 | 0.08 | 0.05 | 71 | 1018.5 |
| 20260507084109 | 15 | 109 | 1.6 | 11.3 | 0.00 | 0.08 | 0.05 | 70 | 1018.5 |
| 20260507084009 | 15 | 103 | 1.6 | 11.3 | 0.00 | 0.08 | 0.05 | 71 | 1018.5 |
| 20260507083908 | 15 | 109 | 1.6 | 11.3 | 0.00 | 0.08 | 0.05 | 71 | 1018.5 |
| 20260507083809 | 15 | 150 | 1.6 | 11.3 | 0.00 | 0.08 | 0.05 | 72 | 1018.6 |
| 20260507083711 | 15 | 153 | 1.6 | 11.3 | 0.00 | 0.08 | 0.05 | 72 | 1018.6 |
| 20260507083610 | 15 | 150 | 1.6 | 11.3 | 0.00 | 0.08 | 0.05 | 71 | 1018.5 |
| 20260507083507 | 15 | 152 | 1.6 | 11.3 | 0.00 | 0.08 | 0.05 | 72 | 1018.5 |
| 20260507083407 | 15 | 142 | 0.0 | 11.3 | 0.00 | 0.08 | 0.05 | 73 | 1018.5 |
| 20260507083307 | 15 | 103 | 0.0 | 6.4 | 0.00 | 0.08 | 0.05 | 71 | 1018.6 |
| 20260507083204 | 15 | 59 | 0.0 | 6.4 | 0.00 | 0.08 | 0.05 | 70 | 1018.6 |
| 20260507083104 | 15 | 59 | 0.0 | 6.4 | 0.00 | 0.08 | 0.05 | 70 | 1018.6 |
| 20260507083003 | 15 | 59 | 0.0 | 4.8 | 0.00 | 0.08 | 0.05 | 70 | 1018.6 |
| 20260507082901 | 14 | 123 | 0.0 | 4.8 | 0.00 | 0.08 | 0.05 | 71 | 1018.6 |
| 20260507082802 | 14 | 123 | 0.0 | 1.6 | 0.00 | 0.08 | 0.05 | 73 | 1018.6 |
| 20260507082658 | 14 | 123 | 0.0 | 1.6 | 0.00 | 0.08 | 0.05 | 71 | 1018.6 |
| 20260507082557 | 14 | 122 | 0.0 | 0.0 | 0.00 | 0.08 | 0.05 | 71 | 1018.6 |
| 20260507082457 | 14 | 122 | 0.0 | 0.0 | 0.00 | 0.08 | 0.05 | 71 | 1018.6 |
| 20260507082354 | 14 | 86 | 0.0 | 0.0 | 0.00 | 0.08 | 0.05 | 71 | 1018.6 |
| 20260507082254 | 14 | 86 | 0.0 | 0.0 | 0.00 | 0.08 | 0.05 | 71 | 1018.6 |
| 20260507082155 | 14 | 86 | 0.0 | 0.0 | 0.00 | 0.08 | 0.05 | 71 | 1018.6 |
| 20260507082055 | 14 | 86 | 0.0 | 0.0 | 0.00 | 0.08 | 0.05 | 71 | 1018.6 |
| 20260507081954 | 14 | 86 | 0.0 | 0.0 | 0.00 | 0.08 | 0.05 | 72 | 1018.6 |
| 20260507081855 | 14 | 86 | 0.0 | 0.0 | 0.00 | 0.08 | 0.05 | 73 | 1018.6 |
| 20260507081752 | 14 | 81 | 0.0 | 0.0 | 0.00 | 0.08 | 0.05 | 72 | 1018.6 |
| 20260507081653 | 14 | 61 | 0.0 | 0.0 | 0.00 | 0.08 | 0.05 | 73 | 1018.6 |
| 20260507081551 | 14 | 96 | 0.0 | 0.0 | 0.00 | 0.08 | 0.05 | 73 | 1018.6 |
| 20260507081449 | 14 | 128 | 0.0 | 0.0 | 0.00 | 0.08 | 0.05 | 74 | 1018.6 |
| 20260507081348 | 15 | 115 | 0.0 | 0.0 | 0.00 | 0.08 | 0.05 | 72 | 1018.6 |
| 20260507081250 | 15 | 109 | 0.0 | 0.0 | 0.00 | 0.08 | 0.05 | 73 | 1018.6 |
| 20260507081148 | 15 | 145 | 0.0 | 0.0 | 0.00 | 0.08 | 0.05 | 71 | 1018.6 |
| 20260507081049 | 15 | 140 | 0.0 | 0.0 | 0.00 | 0.08 | 0.05 | 70 | 1018.6 |
| 20260507080949 | 14 | 140 | 0.0 | 0.0 | 0.00 | 0.08 | 0.05 | 70 | 1018.6 |
| 20260507080847 | 14 | 141 | 0.0 | 0.0 | 0.00 | 0.08 | 0.05 | 71 | 1018.7 |
| 20260507080747 | 14 | 123 | 0.0 | 0.0 | 0.00 | 0.08 | 0.05 | 71 | 1018.6 |
| 20260507080645 | 14 | 171 | 0.0 | 0.0 | 0.00 | 0.08 | 0.05 | 72 | 1018.7 |
| 20260507080545 | 14 | 171 | 0.0 | 0.0 | 0.00 | 0.08 | 0.05 | 73 | 1018.6 |
| 20260507080445 | 14 | 171 | 0.0 | 0.0 | 0.00 | 0.08 | 0.05 | 73 | 1018.6 |
| 20260507080344 | 14 | 126 | 0.0 | 0.0 | 0.00 | 0.08 | 0.05 | 72 | 1018.6 |
| 20260507080244 | 14 | 126 | 0.0 | 0.0 | 0.00 | 0.08 | 0.05 | 72 | 1018.6 |
| 20260507080144 | 14 | 92 | 0.0 | 0.0 | 0.00 | 0.08 | 0.05 | 71 | 1018.6 |
| 20260507080045 | 14 | 92 | 0.0 | 0.0 | 0.00 | 0.08 | 0.05 | 73 | 1018.6 |
| 20260507075944 | 14 | 142 | 0.0 | 0.0 | 0.00 | 0.08 | 0.05 | 73 | 1018.6 |
| 20260507075847 | 14 | 115 | 0.0 | 0.0 | 0.00 | 0.08 | 0.05 | 73 | 1018.7 |
| 20260507075744 | 14 | 115 | 0.0 | 0.0 | 0.00 | 0.08 | 0.05 | 73 | 1018.7 |
| 20260507075644 | 14 | 115 | 0.0 | 0.0 | 0.00 | 0.08 | 0.05 | 73 | 1018.6 |
| 20260507075544 | 13 | 115 | 0.0 | 0.0 | 0.00 | 0.08 | 0.05 | 73 | 1018.6 |
| 20260507075447 | 13 | 117 | 0.0 | 0.0 | 0.00 | 0.08 | 0.05 | 73 | 1018.7 |
| 20260507075340 | 13 | 94 | 0.0 | 0.0 | 0.00 | 0.08 | 0.05 | 73 | 1018.7 |
| 20260507075240 | 13 | 94 | 0.0 | 0.0 | 0.00 | 0.08 | 0.05 | 74 | 1018.7 |
| 20260507075143 | 13 | 94 | 0.0 | 9.7 | 0.00 | 0.08 | 0.05 | 75 | 1018.7 |
| 20260507075043 | 13 | 109 | 0.0 | 9.7 | 0.00 | 0.08 | 0.05 | 75 | 1018.7 |
| 20260507074943 | 13 | 111 | 1.6 | 9.7 | 0.00 | 0.08 | 0.05 | 75 | 1018.7 |
| 20260507074843 | 13 | 90 | 1.6 | 9.7 | 0.00 | 0.08 | 0.05 | 74 | 1018.7 |
| 20260507074740 | 13 | 94 | 1.6 | 9.7 | 0.00 | 0.08 | 0.05 | 74 | 1018.7 |
| 20260507074642 | 13 | 94 | 1.6 | 9.7 | 0.00 | 0.08 | 0.05 | 75 | 1018.7 |
| 20260507074544 | 13 | 96 | 1.6 | 9.7 | 0.00 | 0.08 | 0.05 | 74 | 1018.7 |
| 20260507074439 | 13 | 110 | 1.6 | 9.7 | 0.00 | 0.08 | 0.05 | 75 | 1018.7 |
| 20260507074343 | 13 | 103 | 1.6 | 9.7 | 0.00 | 0.08 | 0.05 | 76 | 1018.7 |
| 20260507074239 | 13 | 100 | 1.6 | 9.7 | 0.00 | 0.08 | 0.05 | 75 | 1018.6 |
| 20260507074136 | 13 | 171 | 0.0 | 8.0 | 0.00 | 0.08 | 0.05 | 76 | 1018.7 |
| 20260507074033 | 13 | 138 | 0.0 | 8.0 | 0.00 | 0.08 | 0.05 | 76 | 1018.7 |
| 20260507073933 | 13 | 138 | 0.0 | 8.0 | 0.00 | 0.08 | 0.05 | 76 | 1018.6 |
| 20260507073835 | 13 | 55 | 0.0 | 0.0 | 0.00 | 0.08 | 0.05 | 75 | 1018.7 |
| 20260507073733 | 13 | 88 | 0.0 | 0.0 | 0.00 | 0.08 | 0.05 | 75 | 1018.6 |
| 20260507073634 | 13 | 88 | 0.0 | 0.0 | 0.00 | 0.08 | 0.05 | 75 | 1018.7 |
| 20260507073534 | 13 | 88 | 0.0 | 0.0 | 0.00 | 0.08 | 0.05 | 76 | 1018.7 |
| 20260507073435 | 13 | 88 | 0.0 | 1.6 | 0.00 | 0.08 | 0.05 | 76 | 1018.7 |
| 20260507073331 | 13 | 84 | 0.0 | 1.6 | 0.00 | 0.08 | 0.05 | 77 | 1018.7 |
| 20260507073229 | 13 | 108 | 0.0 | 1.6 | 0.00 | 0.08 | 0.05 | 77 | 1018.7 |
| 20260507073132 | 13 | 92 | 0.0 | 1.6 | 0.00 | 0.08 | 0.05 | 77 | 1018.7 |
| 20260507073032 | 13 | 140 | 0.0 | 1.6 | 0.00 | 0.08 | 0.05 | 77 | 1018.7 |
| 20260507072931 | 13 | 140 | 0.0 | 1.6 | 0.00 | 0.08 | 0.05 | 76 | 1018.7 |
| 20260507072828 | 13 | 140 | 0.0 | 1.6 | 0.00 | 0.08 | 0.05 | 77 | 1018.7 |
| 20260507072727 | 13 | 140 | 0.0 | 3.2 | 0.00 | 0.08 | 0.05 | 77 | 1018.7 |
| 20260507072628 | 13 | 140 | 0.0 | 4.8 | 0.00 | 0.08 | 0.05 | 77 | 1018.7 |
| 20260507072529 | 13 | 140 | 0.0 | 6.4 | 0.00 | 0.08 | 0.05 | 77 | 1018.7 |
| 20260507072427 | 13 | 117 | 0.0 | 6.4 | 0.00 | 0.08 | 0.05 | 76 | 1018.7 |
| 20260507072327 | 13 | 128 | 0.0 | 6.4 | 0.00 | 0.08 | 0.05 | 76 | 1018.7 |
| 20260507072223 | 13 | 124 | 0.0 | 6.4 | 0.00 | 0.08 | 0.05 | 76 | 1018.7 |
| 20260507072124 | 13 | 119 | 0.0 | 6.4 | 0.00 | 0.08 | 0.05 | 77 | 1018.7 |
| 20260507072027 | 13 | 144 | 0.0 | 6.4 | 0.00 | 0.08 | 0.05 | 77 | 1018.6 |
| 20260507071925 | 13 | 161 | 0.0 | 6.4 | 0.00 | 0.08 | 0.05 | 77 | 1018.7 |
| 20260507071824 | 13 | 160 | 0.0 | 6.4 | 0.00 | 0.08 | 0.05 | 77 | 1018.7 |
| 20260507071724 | 13 | 138 | 0.0 | 6.4 | 0.00 | 0.08 | 0.05 | 78 | 1018.6 |
| 20260507071624 | 13 | 138 | 0.0 | 6.4 | 0.00 | 0.08 | 0.05 | 77 | 1018.7 |
| 20260507071524 | 13 | 142 | 0.0 | 6.4 | 0.00 | 0.08 | 0.05 | 78 | 1018.7 |
| 20260507071424 | 13 | 144 | 0.0 | 6.4 | 0.00 | 0.08 | 0.05 | 78 | 1018.7 |
| 20260507071325 | 13 | 134 | 0.0 | 0.0 | 0.00 | 0.08 | 0.05 | 78 | 1018.7 |
| 20260507071225 | 13 | 131 | 0.0 | 0.0 | 0.00 | 0.08 | 0.05 | 78 | 1018.7 |
| 20260507071124 | 13 | 155 | 0.0 | 0.0 | 0.00 | 0.08 | 0.05 | 77 | 1018.7 |
| 20260507071025 | 13 | 156 | 0.0 | 0.0 | 0.00 | 0.08 | 0.05 | 77 | 1018.6 |
| 20260507070927 | 13 | 156 | 0.0 | 0.0 | 0.00 | 0.08 | 0.05 | 76 | 1018.6 |
| 20260507070824 | 13 | 156 | 0.0 | 0.0 | 0.00 | 0.08 | 0.05 | 77 | 1018.6 |
| 20260507070725 | 13 | 156 | 0.0 | 0.0 | 0.00 | 0.08 | 0.05 | 78 | 1018.6 |
| 20260507070626 | 13 | 157 | 0.0 | 0.0 | 0.00 | 0.08 | 0.05 | 78 | 1018.6 |
| 20260507070527 | 13 | 160 | 0.0 | 0.0 | 0.00 | 0.08 | 0.05 | 79 | 1018.6 |
| 20260507070424 | 13 | 129 | 0.0 | 0.0 | 0.00 | 0.08 | 0.05 | 79 | 1018.6 |
| 20260507070320 | 13 | 129 | 0.0 | 3.2 | 0.00 | 0.08 | 0.05 | 79 | 1018.7 |
| 20260507070222 | 12 | 114 | 0.0 | 3.2 | 0.00 | 0.08 | 0.05 | 79 | 1018.6 |
| 20260507070120 | 12 | 114 | 0.0 | 3.2 | 0.00 | 0.08 | 0.05 | 78 | 1018.6 |
| 20260507070022 | 12 | 114 | 0.0 | 3.2 | 0.00 | 0.08 | 0.05 | 78 | 1018.6 |
| 20260507065919 | 12 | 114 | 0.0 | 3.2 | 0.00 | 0.08 | 0.05 | 78 | 1018.6 |
| 20260507065813 | 12 | 114 | 0.0 | 3.2 | 0.00 | 0.08 | 0.05 | 80 | 1018.6 |
| 20260507065713 | 12 | 111 | 0.0 | 3.2 | 0.00 | 0.08 | 0.05 | 79 | 1018.6 |
| 20260507065614 | 12 | 111 | 0.0 | 3.2 | 0.00 | 0.08 | 0.05 | 80 | 1018.6 |
| 20260507065512 | 12 | 111 | 0.0 | 3.2 | 0.00 | 0.08 | 0.05 | 80 | 1018.6 |
| 20260507065412 | 12 | 111 | 0.0 | 3.2 | 0.00 | 0.08 | 0.05 | 80 | 1018.6 |
| 20260507065313 | 12 | 108 | 0.0 | 3.2 | 0.00 | 0.08 | 0.05 | 80 | 1018.6 |
| 20260507065213 | 12 | 108 | 0.0 | 3.2 | 0.00 | 0.08 | 0.05 | 80 | 1018.6 |
| 20260507065112 | 12 | 108 | 0.0 | 3.2 | 0.00 | 0.08 | 0.05 | 79 | 1018.5 |
| 20260507065014 | 12 | 108 | 0.0 | 3.2 | 0.00 | 0.08 | 0.05 | 80 | 1018.5 |
| 20260507064913 | 12 | 108 | 0.0 | 3.2 | 0.00 | 0.08 | 0.05 | 80 | 1018.5 |
| 20260507064810 | 12 | 92 | 0.0 | 3.2 | 0.00 | 0.08 | 0.05 | 80 | 1018.5 |
| 20260507064711 | 12 | 65 | 0.0 | 0.0 | 0.00 | 0.08 | 0.05 | 81 | 1018.5 |
| 20260507064604 | 12 | 84 | 0.0 | 0.0 | 0.00 | 0.08 | 0.05 | 81 | 1018.5 |
| 20260507064504 | 12 | 26 | 0.0 | 0.0 | 0.00 | 0.08 | 0.05 | 81 | 1018.5 |
| 20260507064404 | 12 | 100 | 0.0 | 0.0 | 0.00 | 0.08 | 0.05 | 82 | 1018.5 |
| 20260507064308 | 12 | 99 | 0.0 | 0.0 | 0.00 | 0.08 | 0.05 | 82 | 1018.5 |
| 20260507064205 | 12 | 99 | 0.0 | 0.0 | 0.00 | 0.08 | 0.05 | 82 | 1018.5 |
| 20260507064106 | 12 | 99 | 0.0 | 0.0 | 0.00 | 0.08 | 0.05 | 82 | 1018.5 |
| 20260507064005 | 12 | 99 | 0.0 | 0.0 | 0.00 | 0.08 | 0.05 | 83 | 1018.5 |
| 20260507063904 | 12 | 97 | 0.0 | 0.0 | 0.00 | 0.08 | 0.05 | 83 | 1018.5 |
| 20260507063806 | 11 | 96 | 0.0 | 0.0 | 0.00 | 0.08 | 0.05 | 82 | 1018.5 |
| 20260507063704 | 11 | 96 | 0.0 | 0.0 | 0.00 | 0.08 | 0.05 | 83 | 1018.3 |
| 20260507063606 | 11 | 96 | 0.0 | 0.0 | 0.00 | 0.08 | 0.05 | 83 | 1018.5 |
| 20260507063504 | 11 | 120 | 0.0 | 0.0 | 0.00 | 0.08 | 0.05 | 83 | 1018.5 |
| 20260507063407 | 11 | 120 | 0.0 | 0.0 | 0.00 | 0.08 | 0.05 | 83 | 1018.5 |
| 20260507063303 | 11 | 136 | 0.0 | 0.0 | 0.00 | 0.08 | 0.05 | 83 | 1018.3 |
| 20260507063201 | 11 | 136 | 0.0 | 0.0 | 0.00 | 0.08 | 0.05 | 83 | 1018.3 |
| 20260507063102 | 11 | 136 | 0.0 | 0.0 | 0.00 | 0.08 | 0.05 | 83 | 1018.5 |
| 20260507063001 | 11 | 136 | 0.0 | 0.0 | 0.00 | 0.08 | 0.05 | 84 | 1018.5 |
| 20260507062902 | 11 | 136 | 0.0 | 0.0 | 0.00 | 0.08 | 0.05 | 84 | 1018.3 |
| 20260507062804 | 11 | 136 | 0.0 | 0.0 | 0.00 | 0.08 | 0.05 | 85 | 1018.5 |
| 20260507062700 | 11 | 136 | 0.0 | 0.0 | 0.00 | 0.08 | 0.05 | 85 | 1018.5 |
| 20260507062600 | 11 | 136 | 0.0 | 0.0 | 0.00 | 0.08 | 0.05 | 85 | 1018.5 |
| 20260507062501 | 11 | 136 | 0.0 | 0.0 | 0.00 | 0.08 | 0.05 | 86 | 1018.5 |
| 20260507062403 | 11 | 136 | 0.0 | 0.0 | 0.00 | 0.08 | 0.05 | 86 | 1018.3 |
| 20260507062300 | 11 | 136 | 0.0 | 0.0 | 0.00 | 0.08 | 0.05 | 87 | 1018.5 |
| 20260507062200 | 11 | 136 | 0.0 | 0.0 | 0.00 | 0.08 | 0.05 | 86 | 1018.3 |
| 20260507062100 | 11 | 136 | 0.0 | 0.0 | 0.00 | 0.08 | 0.05 | 86 | 1018.5 |
| 20260507062002 | 11 | 136 | 0.0 | 0.0 | 0.00 | 0.08 | 0.05 | 86 | 1018.3 |
| 20260507061900 | 11 | 136 | 0.0 | 0.0 | 0.00 | 0.08 | 0.05 | 86 | 1018.3 |
| 20260507061803 | 10 | 136 | 0.0 | 0.0 | 0.00 | 0.08 | 0.05 | 86 | 1018.3 |
| 20260507061700 | 10 | 136 | 0.0 | 0.0 | 0.00 | 0.08 | 0.05 | 86 | 1018.3 |
| 20260507061559 | 10 | 136 | 0.0 | 0.0 | 0.00 | 0.08 | 0.05 | 86 | 1018.3 |
| 20260507061452 | 10 | 136 | 0.0 | 0.0 | 0.00 | 0.08 | 0.05 | 87 | 1018.3 |
| 20260507061351 | 10 | 136 | 0.0 | 0.0 | 0.00 | 0.08 | 0.05 | 88 | 1018.3 |
| 20260507061254 | 10 | 136 | 0.0 | 0.0 | 0.00 | 0.08 | 0.05 | 88 | 1018.3 |
| 20260507061153 | 10 | 169 | 0.0 | 0.0 | 0.00 | 0.08 | 0.05 | 88 | 1018.3 |
| 20260507061052 | 10 | 169 | 0.0 | 0.0 | 0.00 | 0.08 | 0.05 | 88 | 1018.2 |
| 20260507060952 | 10 | 169 | 0.0 | 0.0 | 0.00 | 0.08 | 0.05 | 88 | 1018.3 |
| 20260507060854 | 10 | 169 | 0.0 | 0.0 | 0.00 | 0.08 | 0.05 | 89 | 1018.3 |
| 20260507060754 | 10 | 169 | 0.0 | 0.0 | 0.00 | 0.08 | 0.05 | 89 | 1018.3 |
| 20260507060652 | 10 | 190 | 0.0 | 0.0 | 0.00 | 0.08 | 0.05 | 89 | 1018.3 |
| 20260507060553 | 10 | 224 | 0.0 | 0.0 | 0.00 | 0.08 | 0.05 | 89 | 1018.3 |
| 20260507060452 | 10 | 224 | 0.0 | 0.0 | 0.00 | 0.08 | 0.05 | 90 | 1018.3 |
| 20260507060351 | 10 | 224 | 0.0 | 0.0 | 0.00 | 0.08 | 0.05 | 90 | 1018.2 |
| 20260507060244 | 10 | 224 | 0.0 | 0.0 | 0.00 | 0.08 | 0.05 | 90 | 1018.2 |
| 20260507060146 | 10 | 224 | 0.0 | 0.0 | 0.00 | 0.08 | 0.05 | 90 | 1018.2 |
| 20260507060044 | 10 | 224 | 0.0 | 0.0 | 0.00 | 0.08 | 0.05 | 90 | 1018.3 |
| 20260507055943 | 10 | 224 | 0.0 | 0.0 | 0.00 | 0.08 | 0.05 | 90 | 1018.3 |
| 20260507055844 | 10 | 224 | 0.0 | 0.0 | 0.00 | 0.08 | 0.05 | 90 | 1018.3 |
| 20260507055745 | 10 | 224 | 0.0 | 0.0 | 0.00 | 0.08 | 0.05 | 91 | 1018.3 |
| 20260507055644 | 10 | 224 | 0.0 | 0.0 | 0.00 | 0.08 | 0.05 | 91 | 1018.2 |
| 20260507055547 | 10 | 224 | 0.0 | 0.0 | 0.00 | 0.08 | 0.05 | 91 | 1018.3 |
| 20260507055446 | 10 | 224 | 0.0 | 0.0 | 0.00 | 0.08 | 0.05 | 91 | 1018.2 |
| 20260507055344 | 10 | 224 | 0.0 | 0.0 | 0.00 | 0.08 | 0.05 | 91 | 1018.3 |
| 20260507055244 | 10 | 224 | 0.0 | 0.0 | 0.00 | 0.08 | 0.05 | 91 | 1018.3 |
| 20260507055144 | 10 | 224 | 0.0 | 0.0 | 0.00 | 0.08 | 0.05 | 91 | 1018.2 |
| 20260507055043 | 9 | 224 | 0.0 | 0.0 | 0.00 | 0.08 | 0.05 | 92 | 1018.2 |
| 20260507054944 | 9 | 224 | 0.0 | 0.0 | 0.00 | 0.08 | 0.05 | 92 | 1018.2 |
| 20260507054844 | 9 | 224 | 0.0 | 0.0 | 0.00 | 0.08 | 0.05 | 92 | 1018.3 |
| 20260507054744 | 9 | 224 | 0.0 | 0.0 | 0.00 | 0.08 | 0.05 | 92 | 1018.2 |
| 20260507054645 | 9 | 224 | 0.0 | 0.0 | 0.00 | 0.08 | 0.05 | 92 | 1018.2 |
| 20260507054544 | 9 | 224 | 0.0 | 0.0 | 0.00 | 0.08 | 0.05 | 92 | 1018.2 |
| 20260507054444 | 9 | 224 | 0.0 | 0.0 | 0.00 | 0.08 | 0.05 | 92 | 1018.2 |
| 20260507054347 | 9 | 224 | 0.0 | 0.0 | 0.00 | 0.08 | 0.05 | 92 | 1018.2 |
| 20260507054248 | 9 | 224 | 0.0 | 0.0 | 0.00 | 0.08 | 0.05 | 92 | 1018.2 |
| 20260507054145 | 9 | 224 | 0.0 | 0.0 | 0.00 | 0.08 | 0.05 | 92 | 1018.2 |
| 20260507054044 | 9 | 224 | 0.0 | 0.0 | 0.00 | 0.08 | 0.05 | 92 | 1018.2 |
| 20260507053946 | 9 | 224 | 0.0 | 0.0 | 0.00 | 0.08 | 0.05 | 92 | 1018.2 |
| 20260507053844 | 9 | 224 | 0.0 | 0.0 | 0.00 | 0.08 | 0.05 | 92 | 1018.2 |
| 20260507053747 | 9 | 224 | 0.0 | 0.0 | 0.00 | 0.08 | 0.05 | 92 | 1018.2 |
| 20260507053640 | 9 | 224 | 0.0 | 0.0 | 0.00 | 0.08 | 0.05 | 92 | 1018.1 |
| 20260507053540 | 9 | 224 | 0.0 | 0.0 | 0.00 | 0.08 | 0.05 | 92 | 1018.1 |
| 20260507053442 | 9 | 224 | 0.0 | 0.0 | 0.00 | 0.08 | 0.05 | 92 | 1018.1 |
| 20260507053341 | 9 | 224 | 0.0 | 0.0 | 0.00 | 0.08 | 0.05 | 92 | 1018.1 |
| 20260507053243 | 8 | 224 | 0.0 | 0.0 | 0.00 | 0.08 | 0.05 | 92 | 1018.1 |
| 20260507053143 | 8 | 224 | 0.0 | 0.0 | 0.00 | 0.08 | 0.05 | 92 | 1018.1 |
| 20260507053040 | 8 | 224 | 0.0 | 0.0 | 0.00 | 0.08 | 0.05 | 92 | 1018.1 |
| 20260507052943 | 8 | 224 | 0.0 | 0.0 | 0.00 | 0.08 | 0.05 | 92 | 1018.1 |
| 20260507052841 | 8 | 224 | 0.0 | 0.0 | 0.00 | 0.08 | 0.05 | 92 | 1018.1 |
| 20260507052740 | 8 | 224 | 0.0 | 0.0 | 0.00 | 0.08 | 0.05 | 92 | 1018.1 |
| 20260507052643 | 8 | 224 | 0.0 | 0.0 | 0.00 | 0.08 | 0.05 | 92 | 1018.1 |
| 20260507052539 | 8 | 224 | 0.0 | 0.0 | 0.00 | 0.08 | 0.05 | 92 | 1018.1 |
| 20260507052432 | 8 | 224 | 0.0 | 0.0 | 0.00 | 0.08 | 0.05 | 92 | 1018.1 |
| 20260507052332 | 8 | 224 | 0.0 | 0.0 | 0.00 | 0.08 | 0.05 | 92 | 1018.1 |
| 20260507052234 | 8 | 224 | 0.0 | 0.0 | 0.00 | 0.08 | 0.05 | 92 | 1018.1 |
| 20260507052134 | 8 | 224 | 0.0 | 0.0 | 0.00 | 0.08 | 0.05 | 92 | 1018.0 |
| 20260507052032 | 8 | 224 | 0.0 | 0.0 | 0.00 | 0.08 | 0.05 | 92 | 1018.1 |
| 20260507051932 | 8 | 224 | 0.0 | 0.0 | 0.00 | 0.08 | 0.05 | 92 | 1018.1 |
| 20260507051830 | 8 | 224 | 0.0 | 0.0 | 0.00 | 0.08 | 0.05 | 92 | 1018.1 |
| 20260507051730 | 8 | 224 | 0.0 | 0.0 | 0.00 | 0.08 | 0.05 | 92 | 1018.1 |
| 20260507051630 | 8 | 224 | 0.0 | 0.0 | 0.00 | 0.08 | 0.05 | 92 | 1018.1 |
| 20260507051533 | 8 | 224 | 0.0 | 0.0 | 0.00 | 0.08 | 0.05 | 92 | 1018.1 |
| 20260507051433 | 8 | 224 | 0.0 | 0.0 | 0.00 | 0.08 | 0.05 | 92 | 1018.1 |
| 20260507051330 | 8 | 224 | 0.0 | 0.0 | 0.00 | 0.08 | 0.05 | 92 | 1018.1 |
| 20260507051230 | 8 | 224 | 0.0 | 0.0 | 0.00 | 0.08 | 0.05 | 92 | 1018.2 |
| 20260507051128 | 8 | 224 | 0.0 | 0.0 | 0.00 | 0.08 | 0.05 | 92 | 1018.1 |
| 20260507051029 | 8 | 224 | 0.0 | 0.0 | 0.00 | 0.08 | 0.05 | 92 | 1018.1 |
| 20260507050926 | 8 | 224 | 0.0 | 0.0 | 0.00 | 0.08 | 0.05 | 92 | 1018.1 |
| 20260507050826 | 8 | 224 | 0.0 | 0.0 | 0.00 | 0.08 | 0.05 | 92 | 1018.1 |
| 20260507050725 | 8 | 224 | 0.0 | 0.0 | 0.00 | 0.08 | 0.05 | 92 | 1018.1 |
| 20260507050624 | 8 | 224 | 0.0 | 0.0 | 0.00 | 0.08 | 0.05 | 92 | 1018.0 |
| 20260507050524 | 8 | 224 | 0.0 | 0.0 | 0.00 | 0.08 | 0.05 | 92 | 1018.0 |
| 20260507050422 | 8 | 224 | 0.0 | 0.0 | 0.00 | 0.08 | 0.05 | 92 | 1018.0 |
| 20260507050322 | 8 | 224 | 0.0 | 0.0 | 0.00 | 0.08 | 0.05 | 92 | 1018.0 |
| 20260507050223 | 8 | 224 | 0.0 | 0.0 | 0.00 | 0.08 | 0.05 | 92 | 1018.0 |
| 20260507050118 | 8 | 224 | 0.0 | 0.0 | 0.00 | 0.08 | 0.05 | 92 | 1018.0 |
| 20260507050017 | 8 | 224 | 0.0 | 0.0 | 0.00 | 0.08 | 0.05 | 92 | 1018.0 |
| 20260507045918 | 8 | 224 | 0.0 | 0.0 | 0.00 | 0.08 | 0.05 | 92 | 1018.0 |
| 20260507045816 | 8 | 224 | 0.0 | 0.0 | 0.00 | 0.08 | 0.05 | 92 | 1018.0 |
| 20260507045710 | 8 | 224 | 0.0 | 0.0 | 0.00 | 0.08 | 0.05 | 92 | 1018.0 |
| 20260507045611 | 8 | 191 | 0.0 | 0.0 | 0.00 | 0.08 | 0.05 | 92 | 1018.0 |
| 20260507045509 | 8 | 191 | 0.0 | 0.0 | 0.00 | 0.08 | 0.05 | 92 | 1018.0 |
| 20260507045408 | 8 | 187 | 0.0 | 0.0 | 0.00 | 0.08 | 0.05 | 92 | 1017.9 |
| 20260507045311 | 8 | 188 | 0.0 | 0.0 | 0.00 | 0.08 | 0.05 | 92 | 1017.9 |
| 20260507045206 | 8 | 188 | 0.0 | 0.0 | 0.00 | 0.08 | 0.05 | 92 | 1017.9 |
| 20260507045105 | 8 | 188 | 0.0 | 0.0 | 0.00 | 0.08 | 0.05 | 92 | 1017.8 |
| 20260507045006 | 8 | 188 | 0.0 | 0.0 | 0.00 | 0.08 | 0.05 | 92 | 1017.9 |
| 20260507044902 | 8 | 187 | 0.0 | 0.0 | 0.00 | 0.08 | 0.05 | 92 | 1017.8 |
| 20260507044804 | 8 | 188 | 0.0 | 0.0 | 0.00 | 0.08 | 0.05 | 92 | 1017.9 |
| 20260507044703 | 8 | 187 | 0.0 | 0.0 | 0.00 | 0.08 | 0.05 | 92 | 1017.8 |
| 20260507044602 | 8 | 188 | 0.0 | 0.0 | 0.00 | 0.08 | 0.05 | 92 | 1017.8 |
| 20260507044501 | 8 | 187 | 0.0 | 0.0 | 0.00 | 0.08 | 0.05 | 92 | 1017.8 |
| 20260507044358 | 8 | 188 | 0.0 | 0.0 | 0.00 | 0.08 | 0.05 | 92 | 1017.8 |
| 20260507044259 | 8 | 187 | 0.0 | 0.0 | 0.00 | 0.08 | 0.05 | 92 | 1017.8 |
| 20260507044155 | 8 | 187 | 0.0 | 0.0 | 0.00 | 0.08 | 0.05 | 92 | 1017.8 |
| 20260507044057 | 8 | 188 | 0.0 | 0.0 | 0.00 | 0.08 | 0.05 | 92 | 1017.8 |
| 20260507043950 | 8 | 187 | 0.0 | 0.0 | 0.00 | 0.08 | 0.05 | 92 | 1017.8 |
| 20260507043850 | 8 | 187 | 0.0 | 0.0 | 0.00 | 0.08 | 0.05 | 92 | 1017.8 |
| 20260507043753 | 8 | 187 | 0.0 | 0.0 | 0.00 | 0.08 | 0.05 | 92 | 1017.8 |
| 20260507043648 | 8 | 187 | 0.0 | 0.0 | 0.00 | 0.08 | 0.05 | 92 | 1017.8 |
| 20260507043546 | 8 | 187 | 0.0 | 0.0 | 0.00 | 0.08 | 0.05 | 92 | 1017.8 |
| 20260507043447 | 8 | 187 | 0.0 | 0.0 | 0.00 | 0.08 | 0.05 | 92 | 1017.7 |
| 20260507043345 | 8 | 187 | 0.0 | 0.0 | 0.00 | 0.08 | 0.05 | 92 | 1017.8 |
| 20260507043244 | 8 | 187 | 0.0 | 0.0 | 0.00 | 0.08 | 0.05 | 92 | 1017.7 |
| 20260507043138 | 8 | 187 | 0.0 | 0.0 | 0.00 | 0.08 | 0.05 | 92 | 1017.7 |
| 20260507043037 | 8 | 187 | 0.0 | 0.0 | 0.00 | 0.08 | 0.05 | 92 | 1017.7 |
| 20260507042936 | 8 | 188 | 0.0 | 0.0 | 0.00 | 0.08 | 0.05 | 92 | 1017.7 |
| 20260507042836 | 8 | 187 | 0.0 | 0.0 | 0.00 | 0.08 | 0.05 | 92 | 1017.7 |
| 20260507042739 | 8 | 187 | 0.0 | 0.0 | 0.00 | 0.08 | 0.05 | 92 | 1017.7 |
| 20260507042631 | 8 | 187 | 0.0 | 0.0 | 0.00 | 0.08 | 0.05 | 92 | 1017.7 |
| 20260507042533 | 8 | 187 | 0.0 | 0.0 | 0.00 | 0.08 | 0.05 | 92 | 1017.7 |
| 20260507042429 | 8 | 187 | 0.0 | 0.0 | 0.00 | 0.08 | 0.05 | 92 | 1017.7 |
| 20260507042330 | 8 | 186 | 0.0 | 0.0 | 0.00 | 0.08 | 0.05 | 92 | 1017.6 |
| 20260507042230 | 8 | 186 | 0.0 | 0.0 | 0.00 | 0.08 | 0.05 | 92 | 1017.6 |
| 20260507042129 | 8 | 186 | 0.0 | 0.0 | 0.00 | 0.08 | 0.05 | 92 | 1017.7 |
| 20260507042030 | 8 | 186 | 0.0 | 0.0 | 0.00 | 0.08 | 0.05 | 92 | 1017.6 |
| 20260507041930 | 8 | 186 | 0.0 | 0.0 | 0.00 | 0.08 | 0.05 | 92 | 1017.6 |
| 20260507041827 | 8 | 186 | 0.0 | 0.0 | 0.00 | 0.08 | 0.05 | 92 | 1017.6 |
| 20260507041727 | 8 | 186 | 0.0 | 0.0 | 0.00 | 0.08 | 0.05 | 92 | 1017.6 |
| 20260507041624 | 8 | 186 | 0.0 | 0.0 | 0.00 | 0.08 | 0.05 | 92 | 1017.6 |
| 20260507041524 | 8 | 186 | 0.0 | 0.0 | 0.00 | 0.08 | 0.05 | 92 | 1017.6 |
| 20260507041425 | 8 | 186 | 0.0 | 0.0 | 0.00 | 0.08 | 0.05 | 92 | 1017.6 |
| 20260507041321 | 8 | 186 | 0.0 | 0.0 | 0.00 | 0.08 | 0.05 | 92 | 1017.6 |
| 20260507041218 | 8 | 186 | 0.0 | 0.0 | 0.00 | 0.08 | 0.05 | 92 | 1017.6 |
| 20260507041112 | 8 | 186 | 0.0 | 0.0 | 0.00 | 0.08 | 0.05 | 92 | 1017.6 |
| 20260507041007 | 8 | 186 | 0.0 | 0.0 | 0.00 | 0.08 | 0.05 | 92 | 1017.6 |
| 20260507040907 | 8 | 186 | 0.0 | 0.0 | 0.00 | 0.08 | 0.05 | 92 | 1017.6 |
| 20260507040802 | 8 | 186 | 0.0 | 0.0 | 0.00 | 0.08 | 0.05 | 92 | 1017.6 |
| 20260507040701 | 8 | 186 | 0.0 | 0.0 | 0.00 | 0.08 | 0.05 | 92 | 1017.6 |
| 20260507040600 | 8 | 186 | 0.0 | 0.0 | 0.00 | 0.08 | 0.05 | 92 | 1017.6 |
| 20260507040500 | 8 | 186 | 0.0 | 0.0 | 0.00 | 0.08 | 0.05 | 92 | 1017.6 |
| 20260507040354 | 8 | 186 | 0.0 | 0.0 | 0.00 | 0.08 | 0.05 | 92 | 1017.6 |
| 20260507040252 | 8 | 186 | 0.0 | 0.0 | 0.00 | 0.08 | 0.05 | 92 | 1017.5 |
| 20260507040150 | 8 | 186 | 0.0 | 0.0 | 0.00 | 0.08 | 0.05 | 92 | 1017.5 |
| 20260507040054 | 8 | 186 | 0.0 | 0.0 | 0.00 | 0.08 | 0.05 | 92 | 1017.6 |
| 20260507035950 | 8 | 186 | 0.0 | 0.0 | 0.00 | 0.08 | 0.05 | 92 | 1017.5 |
| 20260507035847 | 8 | 186 | 0.0 | 0.0 | 0.00 | 0.08 | 0.05 | 92 | 1017.5 |
| 20260507035749 | 8 | 186 | 0.0 | 0.0 | 0.00 | 0.08 | 0.05 | 92 | 1017.5 |
| 20260507035650 | 8 | 186 | 0.0 | 0.0 | 0.00 | 0.08 | 0.05 | 92 | 1017.6 |
| 20260507035551 | 8 | 186 | 0.0 | 0.0 | 0.00 | 0.08 | 0.05 | 92 | 1017.6 |
| 20260507035447 | 8 | 186 | 0.0 | 0.0 | 0.00 | 0.08 | 0.05 | 92 | 1017.5 |
| 20260507035342 | 8 | 186 | 0.0 | 0.0 | 0.00 | 0.08 | 0.05 | 92 | 1017.5 |
| 20260507035239 | 8 | 186 | 0.0 | 0.0 | 0.00 | 0.08 | 0.05 | 92 | 1017.5 |
| 20260507035138 | 8 | 186 | 0.0 | 0.0 | 0.00 | 0.08 | 0.05 | 92 | 1017.6 |
| 20260507035040 | 8 | 186 | 0.0 | 0.0 | 0.00 | 0.08 | 0.05 | 92 | 1017.5 |
| 20260507034936 | 8 | 186 | 0.0 | 0.0 | 0.00 | 0.08 | 0.05 | 92 | 1017.5 |
| 20260507034837 | 8 | 186 | 0.0 | 0.0 | 0.00 | 0.08 | 0.05 | 92 | 1017.5 |
| 20260507034737 | 8 | 186 | 0.0 | 0.0 | 0.00 | 0.08 | 0.05 | 92 | 1017.5 |
| 20260507034630 | 8 | 186 | 0.0 | 0.0 | 0.00 | 0.08 | 0.05 | 92 | 1017.6 |
| 20260507034533 | 8 | 186 | 0.0 | 0.0 | 0.00 | 0.08 | 0.05 | 92 | 1017.5 |
| 20260507034430 | 8 | 186 | 0.0 | 0.0 | 0.00 | 0.08 | 0.05 | 92 | 1017.6 |
| 20260507034327 | 8 | 186 | 0.0 | 0.0 | 0.00 | 0.08 | 0.05 | 92 | 1017.5 |
| 20260507034227 | 8 | 186 | 0.0 | 0.0 | 0.00 | 0.08 | 0.05 | 92 | 1017.5 |
| 20260507034126 | 8 | 186 | 0.0 | 0.0 | 0.00 | 0.08 | 0.05 | 92 | 1017.6 |
| 20260507034026 | 8 | 186 | 0.0 | 0.0 | 0.00 | 0.08 | 0.05 | 92 | 1017.5 |
| 20260507033920 | 8 | 186 | 0.0 | 0.0 | 0.00 | 0.08 | 0.05 | 92 | 1017.5 |
| 20260507033821 | 8 | 186 | 0.0 | 0.0 | 0.00 | 0.08 | 0.05 | 92 | 1017.5 |
| 20260507033721 | 8 | 186 | 0.0 | 0.0 | 0.00 | 0.08 | 0.05 | 92 | 1017.5 |
| 20260507033616 | 8 | 186 | 0.0 | 0.0 | 0.00 | 0.08 | 0.05 | 92 | 1017.5 |
| 20260507033515 | 8 | 186 | 0.0 | 0.0 | 0.00 | 0.08 | 0.05 | 92 | 1017.5 |
| 20260507033414 | 8 | 186 | 0.0 | 0.0 | 0.00 | 0.08 | 0.05 | 92 | 1017.5 |
| 20260507033314 | 8 | 186 | 0.0 | 0.0 | 0.00 | 0.08 | 0.05 | 92 | 1017.5 |
| 20260507033212 | 8 | 186 | 0.0 | 0.0 | 0.00 | 0.08 | 0.05 | 92 | 1017.5 |
| 20260507033112 | 8 | 186 | 0.0 | 0.0 | 0.00 | 0.08 | 0.05 | 92 | 1017.5 |
| 20260507033012 | 8 | 186 | 0.0 | 0.0 | 0.00 | 0.08 | 0.05 | 92 | 1017.5 |
| 20260507032908 | 8 | 186 | 0.0 | 0.0 | 0.00 | 0.08 | 0.05 | 92 | 1017.5 |
| 20260507032811 | 8 | 186 | 0.0 | 0.0 | 0.00 | 0.08 | 0.05 | 92 | 1017.5 |
| 20260507032708 | 8 | 186 | 0.0 | 0.0 | 0.00 | 0.08 | 0.05 | 92 | 1017.5 |
| 20260507032607 | 8 | 155 | 0.0 | 0.0 | 0.00 | 0.08 | 0.05 | 92 | 1017.5 |
| 20260507032505 | 8 | 155 | 0.0 | 0.0 | 0.00 | 0.08 | 0.05 | 92 | 1017.5 |
| 20260507032405 | 8 | 155 | 0.0 | 0.0 | 0.00 | 0.08 | 0.05 | 92 | 1017.5 |
| 20260507032307 | 8 | 155 | 0.0 | 0.0 | 0.00 | 0.08 | 0.05 | 92 | 1017.5 |
| 20260507032204 | 8 | 155 | 0.0 | 0.0 | 0.00 | 0.08 | 0.05 | 92 | 1017.6 |
| 20260507032104 | 8 | 155 | 0.0 | 0.0 | 0.00 | 0.08 | 0.05 | 92 | 1017.6 |
| 20260507032005 | 8 | 155 | 0.0 | 0.0 | 0.00 | 0.08 | 0.05 | 92 | 1017.6 |
| 20260507031904 | 8 | 155 | 0.0 | 0.0 | 0.00 | 0.08 | 0.05 | 92 | 1017.6 |
| 20260507031803 | 8 | 155 | 0.0 | 0.0 | 0.00 | 0.08 | 0.05 | 92 | 1017.6 |
| 20260507031702 | 8 | 155 | 0.0 | 0.0 | 0.00 | 0.08 | 0.05 | 92 | 1017.5 |
| 20260507031601 | 8 | 155 | 0.0 | 0.0 | 0.00 | 0.08 | 0.05 | 92 | 1017.5 |
| 20260507031501 | 8 | 155 | 0.0 | 0.0 | 0.00 | 0.08 | 0.05 | 92 | 1017.5 |
| 20260507031359 | 8 | 155 | 0.0 | 0.0 | 0.00 | 0.08 | 0.05 | 92 | 1017.5 |
| 20260507031301 | 8 | 155 | 0.0 | 0.0 | 0.00 | 0.08 | 0.05 | 92 | 1017.5 |
| 20260507031202 | 8 | 155 | 0.0 | 0.0 | 0.00 | 0.08 | 0.05 | 92 | 1017.5 |
| 20260507031100 | 8 | 155 | 0.0 | 0.0 | 0.00 | 0.08 | 0.05 | 92 | 1017.5 |
| 20260507030953 | 8 | 155 | 0.0 | 0.0 | 0.00 | 0.08 | 0.05 | 92 | 1017.5 |
| 20260507030853 | 8 | 155 | 0.0 | 0.0 | 0.00 | 0.08 | 0.05 | 92 | 1017.4 |
| 20260507030751 | 8 | 155 | 0.0 | 0.0 | 0.00 | 0.08 | 0.05 | 92 | 1017.5 |
| 20260507030649 | 8 | 155 | 0.0 | 0.0 | 0.00 | 0.08 | 0.05 | 92 | 1017.5 |
| 20260507030548 | 8 | 155 | 0.0 | 0.0 | 0.00 | 0.08 | 0.05 | 92 | 1017.5 |
| 20260507030448 | 8 | 155 | 0.0 | 0.0 | 0.00 | 0.08 | 0.05 | 92 | 1017.5 |
| 20260507030350 | 8 | 155 | 0.0 | 0.0 | 0.00 | 0.08 | 0.05 | 92 | 1017.5 |
| 20260507030244 | 8 | 155 | 0.0 | 0.0 | 0.00 | 0.08 | 0.05 | 92 | 1017.5 |
| 20260507030142 | 8 | 155 | 0.0 | 0.0 | 0.00 | 0.08 | 0.05 | 92 | 1017.5 |
| 20260507030040 | 8 | 155 | 0.0 | 0.0 | 0.00 | 0.08 | 0.05 | 92 | 1017.4 |
| 20260507025941 | 8 | 155 | 0.0 | 0.0 | 0.00 | 0.08 | 0.05 | 92 | 1017.5 |
| 20260507025836 | 8 | 155 | 0.0 | 0.0 | 0.00 | 0.08 | 0.05 | 92 | 1017.4 |
| 20260507025740 | 8 | 105 | 0.0 | 0.0 | 0.00 | 0.08 | 0.05 | 92 | 1017.5 |
| 20260507025630 | 8 | 78 | 0.0 | 0.0 | 0.00 | 0.08 | 0.05 | 92 | 1017.4 |
| 20260507025530 | 8 | 78 | 0.0 | 0.0 | 0.00 | 0.08 | 0.05 | 92 | 1017.5 |
| 20260507025431 | 8 | 78 | 0.0 | 0.0 | 0.00 | 0.08 | 0.05 | 92 | 1017.5 |
| 20260507025326 | 8 | 78 | 0.0 | 0.0 | 0.00 | 0.08 | 0.05 | 92 | 1017.5 |
| 20260507025231 | 8 | 78 | 0.0 | 0.0 | 0.00 | 0.08 | 0.05 | 92 | 1017.5 |
| 20260507025124 | 8 | 78 | 0.0 | 0.0 | 0.00 | 0.08 | 0.05 | 92 | 1017.5 |
| 20260507025022 | 8 | 78 | 0.0 | 0.0 | 0.00 | 0.08 | 0.05 | 92 | 1017.5 |
| 20260507024925 | 7 | 78 | 0.0 | 0.0 | 0.00 | 0.08 | 0.05 | 92 | 1017.5 |
| 20260507024820 | 7 | 78 | 0.0 | 0.0 | 0.00 | 0.08 | 0.05 | 92 | 1017.5 |
| 20260507024725 | 7 | 78 | 0.0 | 0.0 | 0.00 | 0.08 | 0.05 | 92 | 1017.4 |
| 20260507024617 | 7 | 78 | 0.0 | 0.0 | 0.00 | 0.08 | 0.05 | 92 | 1017.5 |
| 20260507024517 | 7 | 78 | 0.0 | 0.0 | 0.00 | 0.08 | 0.05 | 92 | 1017.5 |
| 20260507024415 | 7 | 78 | 0.0 | 0.0 | 0.00 | 0.08 | 0.05 | 92 | 1017.5 |
| 20260507024315 | 7 | 78 | 0.0 | 0.0 | 0.00 | 0.08 | 0.05 | 92 | 1017.5 |
| 20260507024211 | 7 | 78 | 0.0 | 0.0 | 0.00 | 0.08 | 0.05 | 92 | 1017.5 |
| 20260507024112 | 7 | 78 | 0.0 | 0.0 | 0.00 | 0.08 | 0.05 | 92 | 1017.5 |
| 20260507024013 | 7 | 78 | 0.0 | 0.0 | 0.00 | 0.08 | 0.05 | 92 | 1017.4 |
| 20260507023912 | 7 | 78 | 0.0 | 0.0 | 0.00 | 0.08 | 0.05 | 92 | 1017.4 |
| 20260507023808 | 7 | 78 | 0.0 | 0.0 | 0.00 | 0.08 | 0.05 | 92 | 1017.4 |
| 20260507023707 | 7 | 78 | 0.0 | 0.0 | 0.00 | 0.08 | 0.05 | 92 | 1017.4 |
| 20260507023605 | 7 | 78 | 0.0 | 0.0 | 0.00 | 0.08 | 0.05 | 92 | 1017.4 |
| 20260507023506 | 7 | 78 | 0.0 | 0.0 | 0.00 | 0.08 | 0.05 | 92 | 1017.4 |
| 20260507023405 | 7 | 78 | 0.0 | 0.0 | 0.00 | 0.08 | 0.05 | 92 | 1017.4 |
| 20260507023307 | 7 | 78 | 0.0 | 0.0 | 0.00 | 0.08 | 0.05 | 92 | 1017.4 |
| 20260507023204 | 7 | 78 | 0.0 | 0.0 | 0.00 | 0.08 | 0.05 | 92 | 1017.4 |
| 20260507023104 | 7 | 78 | 0.0 | 0.0 | 0.00 | 0.08 | 0.05 | 92 | 1017.4 |
| 20260507023004 | 7 | 78 | 0.0 | 0.0 | 0.00 | 0.08 | 0.05 | 92 | 1017.5 |
| 20260507022903 | 7 | 78 | 0.0 | 0.0 | 0.00 | 0.08 | 0.05 | 92 | 1017.4 |
| 20260507022803 | 7 | 78 | 0.0 | 0.0 | 0.00 | 0.08 | 0.05 | 92 | 1017.4 |
| 20260507022705 | 7 | 78 | 0.0 | 0.0 | 0.00 | 0.08 | 0.05 | 92 | 1017.4 |
| 20260507022600 | 7 | 78 | 0.0 | 0.0 | 0.00 | 0.08 | 0.05 | 92 | 1017.4 |
| 20260507022503 | 7 | 78 | 0.0 | 0.0 | 0.00 | 0.08 | 0.05 | 92 | 1017.4 |
| 20260507022402 | 7 | 78 | 0.0 | 0.0 | 0.00 | 0.08 | 0.05 | 92 | 1017.4 |
| 20260507022257 | 7 | 80 | 0.0 | 0.0 | 0.00 | 0.08 | 0.05 | 92 | 1017.3 |
| 20260507022157 | 7 | 80 | 0.0 | 0.0 | 0.00 | 0.08 | 0.05 | 92 | 1017.4 |
| 20260507022057 | 7 | 80 | 0.0 | 0.0 | 0.00 | 0.08 | 0.05 | 92 | 1017.3 |
| 20260507021959 | 7 | 80 | 0.0 | 0.0 | 0.00 | 0.08 | 0.05 | 92 | 1017.4 |
| 20260507021856 | 7 | 80 | 0.0 | 0.0 | 0.00 | 0.08 | 0.05 | 92 | 1017.4 |
| 20260507021756 | 7 | 80 | 0.0 | 0.0 | 0.00 | 0.08 | 0.05 | 92 | 1017.4 |
| 20260507021657 | 7 | 80 | 0.0 | 0.0 | 0.00 | 0.08 | 0.05 | 92 | 1017.4 |
| 20260507021554 | 7 | 80 | 0.0 | 0.0 | 0.00 | 0.08 | 0.05 | 92 | 1017.4 |
| 20260507021451 | 7 | 80 | 0.0 | 0.0 | 0.00 | 0.08 | 0.05 | 92 | 1017.4 |
| 20260507021342 | 7 | 80 | 0.0 | 0.0 | 0.00 | 0.08 | 0.05 | 92 | 1017.4 |
| 20260507021238 | 7 | 80 | 0.0 | 0.0 | 0.00 | 0.08 | 0.05 | 92 | 1017.4 |
| 20260507021135 | 7 | 80 | 0.0 | 0.0 | 0.03 | 0.08 | 0.05 | 91 | 1017.4 |
| 20260507021031 | 7 | 80 | 0.0 | 0.0 | 0.03 | 0.08 | 0.05 | 91 | 1017.4 |
| 20260507020933 | 7 | 80 | 0.0 | 0.0 | 0.03 | 0.08 | 0.05 | 91 | 1017.4 |
| 20260507020832 | 7 | 80 | 0.0 | 0.0 | 0.03 | 0.08 | 0.05 | 91 | 1017.4 |
| 20260507020729 | 7 | 80 | 0.0 | 0.0 | 0.03 | 0.08 | 0.05 | 91 | 1017.4 |
| 20260507020629 | 7 | 80 | 0.0 | 0.0 | 0.03 | 0.08 | 0.05 | 91 | 1017.4 |
| 20260507020532 | 7 | 80 | 0.0 | 0.0 | 0.03 | 0.08 | 0.05 | 91 | 1017.4 |
| 20260507020429 | 7 | 80 | 0.0 | 0.0 | 0.03 | 0.08 | 0.05 | 91 | 1017.4 |
| 20260507020330 | 7 | 80 | 0.0 | 0.0 | 0.03 | 0.08 | 0.05 | 91 | 1017.4 |
| 20260507020225 | 7 | 80 | 0.0 | 0.0 | 0.03 | 0.08 | 0.05 | 91 | 1017.4 |
| 20260507020124 | 7 | 80 | 0.0 | 0.0 | 0.03 | 0.08 | 0.05 | 91 | 1017.4 |
| 20260507020021 | 7 | 80 | 0.0 | 0.0 | 0.03 | 0.08 | 0.05 | 91 | 1017.4 |
| 20260507015920 | 7 | 80 | 0.0 | 0.0 | 0.03 | 0.05 | 0.05 | 91 | 1017.4 |
| 20260507015822 | 7 | 80 | 0.0 | 0.0 | 0.03 | 0.05 | 0.05 | 91 | 1017.4 |
| 20260507015716 | 7 | 80 | 0.0 | 0.0 | 0.03 | 0.05 | 0.05 | 91 | 1017.4 |
| 20260507015617 | 7 | 80 | 0.0 | 0.0 | 0.03 | 0.05 | 0.05 | 91 | 1017.4 |
| 20260507015516 | 7 | 80 | 0.0 | 0.0 | 0.03 | 0.05 | 0.05 | 91 | 1017.3 |
| 20260507015416 | 7 | 80 | 0.0 | 0.0 | 0.03 | 0.05 | 0.05 | 91 | 1017.3 |
| 20260507015308 | 7 | 80 | 0.0 | 0.0 | 0.03 | 0.05 | 0.05 | 91 | 1017.3 |
| 20260507015208 | 7 | 80 | 0.0 | 0.0 | 0.03 | 0.05 | 0.05 | 91 | 1017.3 |
| 20260507015105 | 7 | 80 | 0.0 | 0.0 | 0.03 | 0.05 | 0.05 | 91 | 1017.3 |
| 20260507015005 | 7 | 80 | 0.0 | 0.0 | 0.03 | 0.05 | 0.05 | 91 | 1017.2 |
| 20260507014905 | 7 | 80 | 0.0 | 0.0 | 0.03 | 0.05 | 0.05 | 91 | 1017.2 |
| 20260507014759 | 7 | 80 | 0.0 | 0.0 | 0.03 | 0.05 | 0.05 | 91 | 1017.2 |
| 20260507014703 | 7 | 80 | 0.0 | 0.0 | 0.03 | 0.05 | 0.05 | 91 | 1017.2 |
| 20260507014557 | 7 | 80 | 0.0 | 0.0 | 0.03 | 0.05 | 0.05 | 91 | 1017.1 |
| 20260507014458 | 7 | 80 | 0.0 | 0.0 | 0.03 | 0.05 | 0.05 | 91 | 1017.2 |
| 20260507014356 | 7 | 80 | 0.0 | 0.0 | 0.03 | 0.05 | 0.05 | 91 | 1017.2 |
| 20260507014250 | 7 | 80 | 0.0 | 0.0 | 0.03 | 0.05 | 0.05 | 91 | 1017.1 |
| 20260507014149 | 7 | 80 | 0.0 | 0.0 | 0.03 | 0.05 | 0.05 | 91 | 1017.1 |
| 20260507014045 | 7 | 80 | 0.0 | 0.0 | 0.03 | 0.05 | 0.05 | 91 | 1017.1 |
| 20260507013946 | 7 | 80 | 0.0 | 0.0 | 0.03 | 0.05 | 0.05 | 91 | 1017.2 |
| 20260507013846 | 7 | 80 | 0.0 | 0.0 | 0.03 | 0.05 | 0.05 | 91 | 1017.1 |
| 20260507013745 | 7 | 80 | 0.0 | 0.0 | 0.03 | 0.05 | 0.05 | 91 | 1017.1 |
| 20260507013642 | 8 | 80 | 0.0 | 0.0 | 0.03 | 0.05 | 0.05 | 91 | 1017.2 |
| 20260507013545 | 8 | 80 | 0.0 | 0.0 | 0.03 | 0.05 | 0.05 | 91 | 1017.1 |
| 20260507013441 | 8 | 80 | 0.0 | 0.0 | 0.03 | 0.05 | 0.05 | 91 | 1017.1 |
| 20260507013337 | 8 | 80 | 0.0 | 0.0 | 0.03 | 0.05 | 0.05 | 91 | 1017.0 |
| 20260507013236 | 8 | 80 | 0.0 | 0.0 | 0.03 | 0.05 | 0.05 | 91 | 1017.0 |
| 20260507013142 | 8 | 80 | 0.0 | 0.0 | 0.03 | 0.05 | 0.05 | 91 | 1017.1 |
| 20260507013034 | 8 | 80 | 0.0 | 0.0 | 0.03 | 0.05 | 0.05 | 91 | 1017.1 |
| 20260507012931 | 8 | 80 | 0.0 | 0.0 | 0.03 | 0.05 | 0.05 | 91 | 1017.0 |
| 20260507012832 | 8 | 80 | 0.0 | 0.0 | 0.03 | 0.05 | 0.05 | 91 | 1017.0 |
| 20260507012736 | 8 | 80 | 0.0 | 0.0 | 0.03 | 0.05 | 0.05 | 91 | 1017.0 |
| 20260507012637 | 8 | 80 | 0.0 | 0.0 | 0.03 | 0.05 | 0.05 | 91 | 1017.0 |
| 20260507012531 | 8 | 80 | 0.0 | 0.0 | 0.03 | 0.05 | 0.05 | 91 | 1017.0 |
| 20260507012432 | 8 | 80 | 0.0 | 0.0 | 0.03 | 0.05 | 0.05 | 91 | 1017.0 |
| 20260507012332 | 8 | 80 | 0.0 | 0.0 | 0.03 | 0.05 | 0.05 | 91 | 1017.0 |
| 20260507012232 | 8 | 80 | 0.0 | 0.0 | 0.03 | 0.05 | 0.05 | 91 | 1017.0 |
| 20260507012137 | 8 | 80 | 0.0 | 0.0 | 0.03 | 0.05 | 0.05 | 91 | 1017.0 |
| 20260507012031 | 8 | 80 | 0.0 | 0.0 | 0.03 | 0.05 | 0.05 | 91 | 1016.9 |
| 20260507011932 | 8 | 80 | 0.0 | 0.0 | 0.03 | 0.05 | 0.05 | 91 | 1016.9 |
| 20260507011830 | 8 | 80 | 0.0 | 0.0 | 0.03 | 0.05 | 0.05 | 91 | 1017.0 |
| 20260507011730 | 8 | 80 | 0.0 | 0.0 | 0.03 | 0.05 | 0.05 | 91 | 1017.0 |
| 20260507011629 | 8 | 80 | 0.0 | 0.0 | 0.03 | 0.05 | 0.05 | 91 | 1017.0 |
| 20260507011532 | 8 | 80 | 0.0 | 0.0 | 0.03 | 0.05 | 0.05 | 91 | 1017.0 |
| 20260507011429 | 8 | 80 | 0.0 | 0.0 | 0.03 | 0.05 | 0.05 | 91 | 1017.0 |
| 20260507011330 | 8 | 80 | 0.0 | 0.0 | 0.03 | 0.05 | 0.05 | 91 | 1017.0 |
| 20260507011229 | 8 | 80 | 0.0 | 0.0 | 0.03 | 0.05 | 0.03 | 91 | 1017.0 |
| 20260507011129 | 8 | 80 | 0.0 | 0.0 | 0.00 | 0.05 | 0.03 | 91 | 1017.0 |
| 20260507011029 | 8 | 80 | 0.0 | 0.0 | 0.00 | 0.05 | 0.03 | 91 | 1017.0 |
| 20260507010930 | 8 | 80 | 0.0 | 0.0 | 0.00 | 0.05 | 0.03 | 91 | 1017.1 |
| 20260507010824 | 8 | 80 | 0.0 | 0.0 | 0.00 | 0.05 | 0.03 | 91 | 1017.1 |
| 20260507010724 | 8 | 80 | 0.0 | 0.0 | 0.00 | 0.05 | 0.03 | 91 | 1017.1 |
| 20260507010621 | 8 | 80 | 0.0 | 0.0 | 0.00 | 0.05 | 0.03 | 91 | 1017.1 |
| 20260507010522 | 8 | 80 | 0.0 | 0.0 | 0.00 | 0.05 | 0.03 | 91 | 1017.1 |
| 20260507010424 | 8 | 80 | 0.0 | 0.0 | 0.00 | 0.05 | 0.03 | 91 | 1017.1 |
| 20260507010317 | 8 | 80 | 0.0 | 0.0 | 0.00 | 0.05 | 0.03 | 91 | 1017.1 |
| 20260507010217 | 8 | 80 | 0.0 | 0.0 | 0.00 | 0.05 | 0.03 | 91 | 1017.1 |
| 20260507010118 | 8 | 80 | 0.0 | 0.0 | 0.00 | 0.05 | 0.03 | 91 | 1017.1 |
| 20260507010016 | 8 | 80 | 0.0 | 0.0 | 0.00 | 0.05 | 0.03 | 91 | 1017.0 |
| 20260507005914 | 8 | 80 | 0.0 | 0.0 | 0.00 | 0.05 | 0.03 | 91 | 1017.1 |
| 20260507005808 | 8 | 80 | 0.0 | 0.0 | 0.00 | 0.05 | 0.03 | 91 | 1017.1 |
| 20260507005708 | 8 | 80 | 0.0 | 0.0 | 0.00 | 0.05 | 0.03 | 91 | 1017.1 |
| 20260507005604 | 8 | 80 | 0.0 | 0.0 | 0.00 | 0.05 | 0.03 | 91 | 1017.1 |
| 20260507005502 | 8 | 80 | 0.0 | 0.0 | 0.00 | 0.05 | 0.03 | 91 | 1017.1 |
| 20260507005404 | 8 | 80 | 0.0 | 0.0 | 0.00 | 0.05 | 0.03 | 91 | 1017.1 |
| 20260507005306 | 8 | 80 | 0.0 | 0.0 | 0.00 | 0.05 | 0.03 | 91 | 1017.1 |
| 20260507005202 | 8 | 80 | 0.0 | 0.0 | 0.00 | 0.05 | 0.03 | 91 | 1017.1 |
| 20260507005100 | 8 | 80 | 0.0 | 0.0 | 0.00 | 0.05 | 0.03 | 91 | 1017.0 |
| 20260507005002 | 8 | 80 | 0.0 | 0.0 | 0.00 | 0.05 | 0.03 | 91 | 1017.1 |
| 20260507004857 | 8 | 60 | 0.0 | 0.0 | 0.00 | 0.05 | 0.03 | 91 | 1017.0 |
| 20260507004750 | 8 | 60 | 0.0 | 0.0 | 0.00 | 0.05 | 0.03 | 91 | 1017.0 |
| 20260507004648 | 8 | 60 | 0.0 | 0.0 | 0.00 | 0.05 | 0.03 | 91 | 1017.0 |
| 20260507004549 | 8 | 60 | 0.0 | 0.0 | 0.00 | 0.05 | 0.03 | 91 | 1017.0 |
| 20260507004445 | 8 | 60 | 0.0 | 0.0 | 0.00 | 0.05 | 0.03 | 91 | 1017.0 |
| 20260507004346 | 8 | 56 | 0.0 | 0.0 | 0.00 | 0.05 | 0.03 | 91 | 1017.0 |
| 20260507004242 | 8 | 56 | 0.0 | 0.0 | 0.00 | 0.05 | 0.03 | 91 | 1017.1 |
| 20260507004138 | 8 | 56 | 0.0 | 0.0 | 0.00 | 0.05 | 0.03 | 91 | 1017.1 |
| 20260507004039 | 8 | 56 | 0.0 | 0.0 | 0.00 | 0.05 | 0.03 | 91 | 1017.1 |
| 20260507003939 | 8 | 56 | 0.0 | 0.0 | 0.00 | 0.05 | 0.03 | 91 | 1017.0 |
| 20260507003840 | 8 | 56 | 0.0 | 0.0 | 0.00 | 0.05 | 0.03 | 91 | 1017.0 |
| 20260507003739 | 8 | 56 | 0.0 | 0.0 | 0.00 | 0.05 | 0.03 | 91 | 1017.0 |
| 20260507003642 | 8 | 56 | 0.0 | 0.0 | 0.00 | 0.05 | 0.03 | 91 | 1017.0 |
| 20260507003538 | 8 | 56 | 0.0 | 0.0 | 0.00 | 0.05 | 0.03 | 91 | 1017.1 |
| 20260507003436 | 8 | 56 | 0.0 | 0.0 | 0.00 | 0.05 | 0.03 | 91 | 1017.1 |
| 20260507003336 | 8 | 56 | 0.0 | 0.0 | 0.00 | 0.05 | 0.03 | 91 | 1017.1 |
| 20260507003235 | 8 | 56 | 0.0 | 0.0 | 0.00 | 0.05 | 0.03 | 91 | 1017.0 |
| 20260507003136 | 8 | 56 | 0.0 | 0.0 | 0.00 | 0.05 | 0.03 | 91 | 1017.1 |
| 20260507003031 | 8 | 56 | 0.0 | 0.0 | 0.00 | 0.05 | 0.03 | 91 | 1017.0 |
| 20260507002932 | 8 | 56 | 0.0 | 0.0 | 0.00 | 0.05 | 0.03 | 91 | 1017.1 |
| 20260507002831 | 8 | 56 | 0.0 | 0.0 | 0.00 | 0.05 | 0.03 | 91 | 1017.0 |
| 20260507002735 | 8 | 56 | 0.0 | 0.0 | 0.00 | 0.05 | 0.03 | 91 | 1017.0 |
| 20260507002631 | 8 | 56 | 0.0 | 0.0 | 0.00 | 0.05 | 0.03 | 91 | 1017.0 |
| 20260507002534 | 8 | 56 | 0.0 | 0.0 | 0.00 | 0.05 | 0.03 | 91 | 1017.1 |
| 20260507002431 | 8 | 56 | 0.0 | 0.0 | 0.00 | 0.05 | 0.03 | 91 | 1017.1 |
| 20260507002333 | 8 | 56 | 0.0 | 0.0 | 0.00 | 0.05 | 0.03 | 91 | 1017.1 |
| 20260507002231 | 8 | 57 | 0.0 | 0.0 | 0.00 | 0.05 | 0.03 | 91 | 1017.1 |
| 20260507002131 | 8 | 300 | 0.0 | 0.0 | 0.00 | 0.05 | 0.03 | 91 | 1017.0 |
| 20260507002032 | 8 | 300 | 0.0 | 0.0 | 0.00 | 0.05 | 0.03 | 91 | 1017.1 |
| 20260507001931 | 8 | 300 | 0.0 | 0.0 | 0.00 | 0.05 | 0.03 | 91 | 1017.0 |
| 20260507001831 | 8 | 300 | 0.0 | 0.0 | 0.00 | 0.05 | 0.03 | 91 | 1017.0 |
| 20260507001730 | 8 | 300 | 0.0 | 0.0 | 0.00 | 0.05 | 0.03 | 91 | 1017.0 |
| 20260507001632 | 8 | 300 | 0.0 | 0.0 | 0.00 | 0.05 | 0.03 | 91 | 1017.0 |
| 20260507001532 | 8 | 300 | 0.0 | 0.0 | 0.00 | 0.05 | 0.03 | 91 | 1017.0 |
| 20260507001432 | 8 | 300 | 0.0 | 0.0 | 0.00 | 0.05 | 0.03 | 91 | 1017.0 |
| 20260507001331 | 8 | 300 | 0.0 | 0.0 | 0.00 | 0.05 | 0.03 | 91 | 1017.0 |
| 20260507001232 | 8 | 300 | 0.0 | 0.0 | 0.00 | 0.05 | 0.03 | 91 | 1017.0 |
| 20260507001128 | 8 | 300 | 0.0 | 0.0 | 0.00 | 0.05 | 0.03 | 91 | 1017.0 |
| 20260507001030 | 8 | 300 | 0.0 | 0.0 | 0.00 | 0.05 | 0.03 | 91 | 1017.0 |
| 20260507000928 | 8 | 300 | 0.0 | 0.0 | 0.00 | 0.05 | 0.03 | 91 | 1017.0 |
| 20260507000827 | 8 | 300 | 0.0 | 0.0 | 0.00 | 0.05 | 0.03 | 91 | 1017.0 |
| 20260507000723 | 8 | 300 | 0.0 | 0.0 | 0.00 | 0.05 | 0.03 | 91 | 1017.0 |
| 20260507000618 | 8 | 300 | 0.0 | 0.0 | 0.00 | 0.05 | 0.03 | 91 | 1017.0 |
| 20260507000514 | 8 | 300 | 0.0 | 0.0 | 0.00 | 0.05 | 0.03 | 91 | 1017.0 |
| 20260507000410 | 8 | 300 | 0.0 | 0.0 | 0.00 | 0.05 | 0.03 | 91 | 1016.9 |
| 20260507000310 | 8 | 300 | 0.0 | 0.0 | 0.00 | 0.05 | 0.03 | 90 | 1017.0 |
| 20260507000212 | 8 | 300 | 0.0 | 0.0 | 0.00 | 0.05 | 0.03 | 90 | 1017.0 |
| 20260507000005 | 8 | 300 | 0.0 | 0.0 | 0.00 | 0.05 | 0.03 | 90 | 1017.0 |
| 20260506235903 | 8 | 300 | 0.0 | 0.0 | 0.00 | 0.05 | 0.03 | 90 | 1016.9 |
| 20260506235803 | 8 | 300 | 0.0 | 0.0 | 0.00 | 0.05 | 0.03 | 90 | 1016.9 |
| 20260506235703 | 8 | 300 | 0.0 | 0.0 | 0.00 | 0.05 | 0.03 | 90 | 1016.9 |
| 20260506235604 | 8 | 300 | 0.0 | 0.0 | 0.00 | 0.05 | 0.03 | 90 | 1016.9 |
| 20260506235503 | 8 | 300 | 0.0 | 0.0 | 0.00 | 0.05 | 0.03 | 90 | 1017.0 |
| 20260506235403 | 8 | 300 | 0.0 | 0.0 | 0.00 | 0.05 | 0.03 | 90 | 1016.9 |
| 20260506235306 | 8 | 300 | 0.0 | 0.0 | 0.00 | 0.05 | 0.03 | 90 | 1017.0 |
| 20260506235206 | 8 | 300 | 0.0 | 0.0 | 0.00 | 0.05 | 0.03 | 90 | 1017.0 |
| 20260506235104 | 8 | 300 | 0.0 | 0.0 | 0.00 | 0.05 | 0.03 | 90 | 1017.0 |
| 20260506235003 | 8 | 300 | 0.0 | 0.0 | 0.00 | 0.05 | 0.03 | 90 | 1017.0 |
| 20260506234903 | 8 | 300 | 0.0 | 0.0 | 0.00 | 0.05 | 0.03 | 90 | 1017.0 |
| 20260506234804 | 8 | 300 | 0.0 | 0.0 | 0.00 | 0.05 | 0.03 | 90 | 1016.9 |
| 20260506234704 | 8 | 300 | 0.0 | 0.0 | 0.00 | 0.05 | 0.03 | 90 | 1016.9 |
| 20260506234604 | 8 | 300 | 0.0 | 0.0 | 0.00 | 0.05 | 0.03 | 90 | 1016.9 |
| 20260506234503 | 8 | 300 | 0.0 | 0.0 | 0.00 | 0.05 | 0.03 | 90 | 1017.0 |
| 20260506234403 | 8 | 300 | 0.0 | 0.0 | 0.00 | 0.05 | 0.03 | 90 | 1017.0 |
| 20260506234304 | 8 | 300 | 0.0 | 0.0 | 0.00 | 0.05 | 0.03 | 90 | 1016.9 |
| 20260506234159 | 8 | 300 | 0.0 | 0.0 | 0.00 | 0.05 | 0.03 | 90 | 1017.0 |
| 20260506234059 | 8 | 300 | 0.0 | 0.0 | 0.00 | 0.05 | 0.03 | 90 | 1017.0 |
| 20260506233959 | 8 | 300 | 0.0 | 0.0 | 0.00 | 0.05 | 0.03 | 90 | 1017.0 |
| 20260506233900 | 8 | 300 | 0.0 | 0.0 | 0.00 | 0.05 | 0.03 | 89 | 1017.0 |
| 20260506233759 | 8 | 300 | 0.0 | 0.0 | 0.00 | 0.05 | 0.03 | 89 | 1017.0 |
| 20260506233702 | 8 | 300 | 0.0 | 0.0 | 0.00 | 0.05 | 0.03 | 89 | 1017.0 |
| 20260506233559 | 8 | 300 | 0.0 | 0.0 | 0.00 | 0.05 | 0.03 | 89 | 1017.0 |
| 20260506233459 | 8 | 300 | 0.0 | 0.0 | 0.00 | 0.05 | 0.03 | 89 | 1016.9 |
| 20260506233359 | 8 | 300 | 0.0 | 0.0 | 0.00 | 0.05 | 0.03 | 89 | 1017.0 |
| 20260506233300 | 8 | 300 | 0.0 | 0.0 | 0.00 | 0.05 | 0.03 | 89 | 1017.0 |
| 20260506233159 | 8 | 300 | 0.0 | 1.6 | 0.00 | 0.05 | 0.03 | 89 | 1017.0 |
| 20260506233102 | 8 | 300 | 0.0 | 1.6 | 0.00 | 0.05 | 0.03 | 89 | 1016.9 |
| 20260506232959 | 8 | 300 | 0.0 | 1.6 | 0.03 | 0.05 | 0.03 | 89 | 1017.0 |
| 20260506232901 | 8 | 300 | 0.0 | 1.6 | 0.03 | 0.05 | 0.03 | 89 | 1016.9 |
| 20260506232759 | 8 | 300 | 0.0 | 1.6 | 0.03 | 0.05 | 0.03 | 89 | 1016.9 |
| 20260506232659 | 8 | 300 | 0.0 | 1.6 | 0.03 | 0.05 | 0.03 | 89 | 1016.9 |
| 20260506232559 | 8 | 300 | 0.0 | 1.6 | 0.03 | 0.05 | 0.03 | 89 | 1016.9 |
| 20260506232459 | 8 | 300 | 0.0 | 1.6 | 0.03 | 0.05 | 0.03 | 89 | 1016.9 |
| 20260506232400 | 8 | 300 | 0.0 | 1.6 | 0.03 | 0.05 | 0.03 | 89 | 1016.8 |
| 20260506232255 | 8 | 300 | 0.0 | 1.6 | 0.03 | 0.05 | 0.03 | 89 | 1016.8 |
| 20260506232158 | 8 | 242 | 0.0 | 0.0 | 0.03 | 0.05 | 0.03 | 89 | 1016.8 |
| 20260506232056 | 8 | 242 | 0.0 | 0.0 | 0.03 | 0.05 | 0.03 | 89 | 1016.8 |
| 20260506231954 | 8 | 242 | 0.0 | 0.0 | 0.03 | 0.05 | 0.03 | 89 | 1016.8 |
| 20260506231856 | 8 | 242 | 0.0 | 0.0 | 0.03 | 0.05 | 0.03 | 89 | 1016.7 |
| 20260506231758 | 8 | 242 | 0.0 | 0.0 | 0.03 | 0.05 | 0.03 | 89 | 1016.8 |
| 20260506231654 | 8 | 242 | 0.0 | 1.6 | 0.03 | 0.05 | 0.03 | 89 | 1016.7 |
| 20260506231555 | 8 | 242 | 0.0 | 1.6 | 0.03 | 0.05 | 0.03 | 89 | 1016.7 |
| 20260506231451 | 8 | 242 | 0.0 | 1.6 | 0.03 | 0.05 | 0.03 | 89 | 1016.7 |
| 20260506231352 | 8 | 242 | 0.0 | 1.6 | 0.03 | 0.05 | 0.03 | 89 | 1016.7 |
| 20260506231253 | 8 | 240 | 0.0 | 1.6 | 0.03 | 0.05 | 0.03 | 89 | 1016.7 |
| 20260506231151 | 8 | 296 | 0.0 | 1.6 | 0.03 | 0.05 | 0.03 | 89 | 1016.7 |
| 20260506230947 | 8 | 296 | 0.0 | 1.6 | 0.03 | 0.05 | 0.03 | 89 | 1016.8 |
| 20260506230847 | 8 | 295 | 0.0 | 1.6 | 0.03 | 0.05 | 0.03 | 89 | 1016.8 |
| 20260506230746 | 8 | 258 | 0.0 | 1.6 | 0.03 | 0.05 | 0.03 | 89 | 1016.8 |
| 20260506230647 | 8 | 252 | 0.0 | 1.6 | 0.03 | 0.05 | 0.03 | 89 | 1016.9 |
| 20260506230547 | 8 | 236 | 0.0 | 1.6 | 0.03 | 0.05 | 0.03 | 89 | 1016.8 |
| 20260506230451 | 8 | 288 | 0.0 | 1.6 | 0.03 | 0.05 | 0.03 | 89 | 1016.8 |
| 20260506230347 | 8 | 288 | 0.0 | 1.6 | 0.03 | 0.05 | 0.03 | 89 | 1016.9 |
| 20260506230246 | 8 | 301 | 0.0 | 1.6 | 0.03 | 0.05 | 0.03 | 89 | 1016.9 |
| 20260506230150 | 8 | 301 | 0.0 | 1.6 | 0.03 | 0.05 | 0.03 | 89 | 1016.9 |
| 20260506230047 | 8 | 301 | 0.0 | 1.6 | 0.03 | 0.05 | 0.03 | 89 | 1016.9 |
| 20260506225946 | 8 | 274 | 0.0 | 1.6 | 0.03 | 0.03 | 0.03 | 89 | 1016.8 |
| 20260506225839 | 8 | 248 | 0.0 | 1.6 | 0.03 | 0.03 | 0.03 | 89 | 1016.9 |
| 20260506225741 | 8 | 248 | 0.0 | 1.6 | 0.03 | 0.03 | 0.03 | 89 | 1016.9 |
| 20260506225640 | 8 | 247 | 0.0 | 1.6 | 0.03 | 0.03 | 0.03 | 89 | 1016.9 |
| 20260506225540 | 8 | 213 | 0.0 | 1.6 | 0.05 | 0.03 | 0.03 | 89 | 1016.9 |
| 20260506225442 | 8 | 213 | 0.0 | 1.6 | 0.05 | 0.03 | 0.03 | 89 | 1016.9 |
| 20260506225339 | 8 | 213 | 0.0 | 14.5 | 0.05 | 0.03 | 0.03 | 88 | 1016.9 |
| 20260506225239 | 8 | 212 | 0.0 | 14.5 | 0.05 | 0.03 | 0.03 | 89 | 1016.9 |
| 20260506225140 | 8 | 211 | 0.0 | 14.5 | 0.05 | 0.03 | 0.03 | 89 | 1017.0 |
| 20260506225039 | 8 | 26 | 0.0 | 14.5 | 0.05 | 0.03 | 0.03 | 89 | 1017.0 |
| 20260506224942 | 8 | 223 | 0.0 | 14.5 | 0.05 | 0.03 | 0.03 | 89 | 1016.9 |
| 20260506224839 | 9 | 219 | 0.0 | 14.5 | 0.05 | 0.03 | 0.03 | 89 | 1016.9 |
| 20260506224742 | 9 | 219 | 0.0 | 14.5 | 0.05 | 0.03 | 0.03 | 89 | 1017.0 |
| 20260506224639 | 9 | 254 | 0.0 | 14.5 | 0.05 | 0.03 | 0.03 | 89 | 1016.9 |
| 20260506224539 | 9 | 254 | 0.0 | 14.5 | 0.05 | 0.03 | 0.03 | 89 | 1016.9 |
| 20260506224442 | 9 | 261 | 0.0 | 14.5 | 0.05 | 0.03 | 0.03 | 89 | 1016.9 |
| 20260506224338 | 9 | 241 | 0.0 | 11.3 | 0.05 | 0.03 | 0.03 | 89 | 1017.0 |
| 20260506224238 | 9 | 251 | 0.0 | 6.4 | 0.05 | 0.03 | 0.03 | 89 | 1016.9 |
| 20260506224141 | 9 | 209 | 0.0 | 6.4 | 0.05 | 0.03 | 0.03 | 89 | 1016.9 |
| 20260506224043 | 9 | 286 | 0.0 | 6.4 | 0.05 | 0.03 | 0.03 | 89 | 1016.9 |
| 20260506223935 | 9 | 243 | 0.0 | 6.4 | 0.05 | 0.03 | 0.03 | 89 | 1016.9 |
| 20260506223837 | 9 | 239 | 0.0 | 6.4 | 0.05 | 0.03 | 0.03 | 89 | 1017.0 |
| 20260506223735 | 9 | 229 | 0.0 | 6.4 | 0.05 | 0.03 | 0.03 | 89 | 1016.9 |
| 20260506223635 | 9 | 244 | 0.0 | 6.4 | 0.05 | 0.03 | 0.03 | 89 | 1016.9 |
| 20260506223535 | 9 | 254 | 0.0 | 6.4 | 0.05 | 0.03 | 0.03 | 89 | 1017.0 |
| 20260506223438 | 9 | 240 | 0.0 | 6.4 | 0.05 | 0.03 | 0.03 | 88 | 1017.0 |
| 20260506223335 | 9 | 240 | 0.0 | 6.4 | 0.05 | 0.03 | 0.03 | 89 | 1017.0 |
| 20260506223235 | 9 | 297 | 0.0 | 4.8 | 0.05 | 0.03 | 0.03 | 89 | 1017.0 |
| 20260506223136 | 9 | 229 | 0.0 | 4.8 | 0.05 | 0.03 | 0.03 | 89 | 1017.1 |
| 20260506223035 | 9 | 219 | 0.0 | 4.8 | 0.05 | 0.03 | 0.00 | 89 | 1017.1 |
| 20260506222935 | 9 | 239 | 0.0 | 3.2 | 0.03 | 0.03 | 0.00 | 88 | 1017.1 |
| 20260506222838 | 9 | 257 | 0.0 | 3.2 | 0.03 | 0.03 | 0.00 | 88 | 1017.1 |
| 20260506222735 | 9 | 256 | 0.0 | 3.2 | 0.03 | 0.03 | 0.00 | 88 | 1017.1 |
| 20260506222636 | 9 | 256 | 0.0 | 3.2 | 0.03 | 0.03 | 0.00 | 88 | 1017.1 |
| 20260506222536 | 9 | 233 | 0.0 | 3.2 | 0.03 | 0.03 | 0.00 | 88 | 1017.1 |
| 20260506222437 | 9 | 241 | 0.0 | 1.6 | 0.03 | 0.03 | 0.00 | 88 | 1017.1 |
| 20260506222335 | 9 | 236 | 0.0 | 1.6 | 0.03 | 0.03 | 0.00 | 88 | 1017.1 |
| 20260506222236 | 9 | 200 | 0.0 | 1.6 | 0.03 | 0.03 | 0.00 | 88 | 1017.1 |
| 20260506222135 | 9 | 200 | 0.0 | 1.6 | 0.03 | 0.03 | 0.00 | 88 | 1017.1 |
| 20260506222102 | 10 | 200 | 0.0 | 1.6 | 0.03 | 0.03 | 0.00 | 88 | 1017.1 |
| 20260506221933 | 10 | 200 | 0.0 | 1.6 | 0.03 | 0.03 | 0.00 | 88 | 1017.1 |
| 20260506221831 | 10 | 292 | 0.0 | 1.6 | 0.03 | 0.03 | 0.00 | 88 | 1017.1 |
| 20260506221731 | 10 | 234 | 0.0 | 1.6 | 0.03 | 0.03 | 0.00 | 88 | 1017.2 |
| 20260506221632 | 10 | 234 | 0.0 | 1.6 | 0.03 | 0.03 | 0.00 | 88 | 1017.2 |
| 20260506221534 | 10 | 234 | 0.0 | 1.6 | 0.03 | 0.03 | 0.00 | 88 | 1017.2 |
| 20260506221432 | 10 | 234 | 0.0 | 1.6 | 0.03 | 0.03 | 0.00 | 88 | 1017.2 |
| 20260506221331 | 10 | 234 | 0.0 | 1.6 | 0.03 | 0.03 | 0.00 | 88 | 1017.1 |
| 20260506221231 | 10 | 234 | 0.0 | 1.6 | 0.03 | 0.03 | 0.00 | 88 | 1017.2 |
| 20260506221134 | 10 | 240 | 0.0 | 1.6 | 0.03 | 0.03 | 0.00 | 88 | 1017.1 |
| 20260506221031 | 10 | 242 | 0.0 | 1.6 | 0.03 | 0.03 | 0.00 | 88 | 1017.2 |
| 20260506220932 | 10 | 265 | 0.0 | 1.6 | 0.03 | 0.03 | 0.00 | 88 | 1017.2 |
| 20260506220831 | 10 | 281 | 0.0 | 0.0 | 0.03 | 0.03 | 0.00 | 88 | 1017.2 |
| 20260506220733 | 10 | 319 | 0.0 | 0.0 | 0.03 | 0.03 | 0.00 | 88 | 1017.2 |
| 20260506220631 | 10 | 321 | 0.0 | 0.0 | 0.03 | 0.03 | 0.00 | 88 | 1017.2 |
| 20260506220531 | 10 | 321 | 0.0 | 0.0 | 0.03 | 0.03 | 0.00 | 89 | 1017.1 |
| 20260506220431 | 10 | 321 | 0.0 | 0.0 | 0.03 | 0.03 | 0.00 | 89 | 1017.2 |
| 20260506220334 | 10 | 355 | 0.0 | 0.0 | 0.03 | 0.03 | 0.00 | 89 | 1017.2 |
| 20260506220233 | 10 | 327 | 0.0 | 0.0 | 0.03 | 0.03 | 0.00 | 89 | 1017.2 |
| 20260506220127 | 10 | 328 | 0.0 | 0.0 | 0.03 | 0.03 | 0.00 | 89 | 1017.1 |
| 20260506220026 | 10 | 340 | 0.0 | 0.0 | 0.03 | 0.03 | 0.00 | 89 | 1017.1 |
| 20260506215928 | 10 | 219 | 0.0 | 0.0 | 0.03 | 0.00 | 0.03 | 89 | 1017.2 |
| 20260506215829 | 10 | 219 | 0.0 | 0.0 | 0.03 | 0.00 | 0.03 | 88 | 1017.1 |
| 20260506215725 | 10 | 219 | 0.0 | 0.0 | 0.03 | 0.00 | 0.03 | 88 | 1017.1 |
| 20260506215622 | 10 | 219 | 0.0 | 0.0 | 0.03 | 0.00 | 0.00 | 88 | 1017.1 |
| 20260506215520 | 10 | 219 | 0.0 | 0.0 | 0.00 | 0.00 | 0.00 | 88 | 1017.0 |
| 20260506215423 | 10 | 219 | 0.0 | 0.0 | 0.00 | 0.00 | 0.00 | 88 | 1017.1 |
| 20260506215318 | 10 | 219 | 0.0 | 0.0 | 0.00 | 0.00 | 0.00 | 88 | 1017.1 |
| 20260506215218 | 10 | 219 | 0.0 | 0.0 | 0.00 | 0.00 | 0.00 | 88 | 1017.0 |
| 20260506215118 | 10 | 219 | 0.0 | 0.0 | 0.00 | 0.00 | 0.00 | 88 | 1017.0 |
| 20260506215016 | 10 | 219 | 0.0 | 0.0 | 0.00 | 0.00 | 0.00 | 88 | 1017.1 |
| 20260506214914 | 10 | 219 | 0.0 | 0.0 | 0.00 | 0.00 | 0.00 | 88 | 1017.1 |
| 20260506214816 | 10 | 219 | 0.0 | 0.0 | 0.00 | 0.00 | 0.00 | 88 | 1017.0 |
| 20260506214712 | 10 | 219 | 0.0 | 0.0 | 0.00 | 0.00 | 0.00 | 88 | 1017.0 |
| 20260506214613 | 10 | 219 | 0.0 | 0.0 | 0.00 | 0.00 | 0.00 | 88 | 1017.0 |
| 20260506214514 | 10 | 219 | 0.0 | 0.0 | 0.00 | 0.00 | 0.00 | 88 | 1017.0 |
| 20260506214415 | 10 | 219 | 0.0 | 0.0 | 0.00 | 0.00 | 0.00 | 88 | 1016.9 |
| 20260506214313 | 10 | 219 | 0.0 | 0.0 | 0.00 | 0.00 | 0.00 | 88 | 1016.9 |
| 20260506214208 | 10 | 219 | 0.0 | 0.0 | 0.00 | 0.00 | 0.00 | 88 | 1016.9 |
| 20260506214109 | 10 | 219 | 0.0 | 0.0 | 0.00 | 0.00 | 0.00 | 88 | 1016.9 |
| 20260506214006 | 10 | 219 | 0.0 | 0.0 | 0.00 | 0.00 | 0.00 | 88 | 1016.8 |
| 20260506213904 | 10 | 219 | 0.0 | 0.0 | 0.00 | 0.00 | 0.00 | 88 | 1016.8 |
| 20260506213804 | 10 | 219 | 0.0 | 0.0 | 0.00 | 0.00 | 0.00 | 87 | 1016.8 |
| 20260506213705 | 10 | 219 | 0.0 | 0.0 | 0.00 | 0.00 | 0.00 | 87 | 1016.8 |
| 20260506213605 | 10 | 219 | 0.0 | 0.0 | 0.00 | 0.00 | 0.00 | 87 | 1016.8 |
| 20260506213503 | 10 | 219 | 0.0 | 0.0 | 0.00 | 0.00 | 0.00 | 87 | 1016.8 |
| 20260506213405 | 10 | 219 | 0.0 | 0.0 | 0.00 | 0.00 | 0.00 | 87 | 1016.7 |
| 20260506213305 | 10 | 219 | 0.0 | 0.0 | 0.00 | 0.00 | 0.00 | 87 | 1016.8 |
| 20260506213202 | 10 | 219 | 0.0 | 0.0 | 0.00 | 0.00 | 0.00 | 87 | 1016.8 |
| 20260506213101 | 10 | 219 | 0.0 | 0.0 | 0.00 | 0.00 | 0.00 | 87 | 1016.7 |
| 20260506213003 | 10 | 219 | 0.0 | 0.0 | 0.00 | 0.00 | 0.00 | 88 | 1016.8 |
| 20260506212854 | 10 | 219 | 0.0 | 0.0 | 0.00 | 0.00 | 0.00 | 88 | 1016.7 |
| 20260506212755 | 10 | 219 | 0.0 | 0.0 | 0.00 | 0.00 | 0.00 | 88 | 1016.7 |